Wetterdaten: aktuell Dienstag, 21.09.2021 01:16
Datum Zeit Temp. Aussen Temp. o. S. Temp +5cm Feuchte Auss Luftdruck Regen Sonnenschein Regendauer Solar Windben Empfang
21.09.2021 01:16 13,0 C 12,2 C 10,6 C 75 % 1026,3 hPa 0,0 l/m 0 min 0 min 0 W/m 6,4 km/h (2 Bft) 95,74 %
21.09.2021 01:14 12,9 C 12,2 C 10,6 C 75 % 1026,3 hPa 0,0 l/m 0 min 0 min 0 W/m 6,4 km/h (2 Bft) 95,74 %
21.09.2021 01:12 12,9 C 12,2 C 10,0 C 75 % 1026,3 hPa 0,0 l/m 0 min 0 min 0 W/m 12,9 km/h (3 Bft) 95,74 %
21.09.2021 01:10 12,9 C 12,2 C 10,0 C 75 % 1026,2 hPa 0,0 l/m 0 min 0 min 0 W/m 6,4 km/h (2 Bft) 95,65 %
21.09.2021 01:08 12,9 C 12,2 C 10,0 C 75 % 1026,1 hPa 0,0 l/m 0 min 0 min 0 W/m 6,4 km/h (2 Bft) 95,74 %
21.09.2021 01:06 12,9 C 12,2 C 10,0 C 75 % 1026,1 hPa 0,0 l/m 0 min 0 min 0 W/m 3,2 km/h (1 Bft) 95,74 %
21.09.2021 01:04 12,9 C 12,2 C 10,0 C 75 % 1026,0 hPa 0,0 l/m 0 min 0 min 0 W/m 3,2 km/h (1 Bft) 95,74 %
21.09.2021 01:02 12,9 C 12,2 C 10,0 C 75 % 1026,1 hPa 0,0 l/m 0 min 0 min 0 W/m 6,4 km/h (2 Bft) 91,49 %
21.09.2021 01:00 12,9 C 12,2 C 10,0 C 75 % 1026,0 hPa 0,0 l/m 0 min 0 min 0 W/m 6,4 km/h (2 Bft) 95,74 %
21.09.2021 00:58 12,9 C 12,2 C 10,0 C 75 % 1025,9 hPa 0,0 l/m 0 min 0 min 0 W/m 3,2 km/h (1 Bft) 95,65 %
21.09.2021 00:56 12,9 C 12,2 C 10,0 C 75 % 1025,9 hPa 0,0 l/m 0 min 0 min 0 W/m 3,2 km/h (1 Bft) 95,74 %
21.09.2021 00:54 12,9 C 12,2 C 10,0 C 75 % 1025,8 hPa 0,0 l/m 0 min 0 min 0 W/m 6,4 km/h (2 Bft) 93,62 %
21.09.2021 00:52 12,9 C 12,2 C 10,0 C 75 % 1025,9 hPa 0,0 l/m 0 min 0 min 0 W/m 3,2 km/h (1 Bft) 95,74 %
21.09.2021 00:50 12,9 C 12,2 C 10,0 C 75 % 1025,9 hPa 0,0 l/m 0 min 0 min 0 W/m 6,4 km/h (2 Bft) 95,74 %
21.09.2021 00:48 12,9 C 12,2 C 10,0 C 75 % 1025,9 hPa 0,0 l/m 0 min 0 min 0 W/m 3,2 km/h (1 Bft) 93,62 %
21.09.2021 00:46 13,0 C 12,2 C 10,0 C 75 % 1025,8 hPa 0,0 l/m 0 min 0 min 0 W/m 6,4 km/h (2 Bft) 93,48 %
21.09.2021 00:44 13,0 C 12,2 C 10,0 C 75 % 1025,9 hPa 0,0 l/m 0 min 0 min 0 W/m 9,7 km/h (2 Bft) 97,87 %
21.09.2021 00:42 13,0 C 12,2 C 10,0 C 75 % 1025,8 hPa 0,0 l/m 0 min 0 min 0 W/m 6,4 km/h (2 Bft) 95,74 %
21.09.2021 00:40 13,0 C 12,2 C 10,0 C 75 % 1025,8 hPa 0,0 l/m 0 min 0 min 0 W/m 9,7 km/h (2 Bft) 97,87 %
21.09.2021 00:38 13,0 C 12,2 C 10,0 C 75 % 1025,8 hPa 0,0 l/m 0 min 0 min 0 W/m 6,4 km/h (2 Bft) 97,87 %
21.09.2021 00:36 13,0 C 12,2 C 10,0 C 75 % 1025,9 hPa 0,0 l/m 0 min 0 min 0 W/m 6,4 km/h (2 Bft) 95,74 %
21.09.2021 00:34 13,0 C 12,2 C 10,0 C 75 % 1025,8 hPa 0,0 l/m 0 min 0 min 0 W/m 6,4 km/h (2 Bft) 97,83 %
21.09.2021 00:32 13,0 C 12,2 C 10,0 C 74 % 1025,8 hPa 0,0 l/m 0 min 0 min 0 W/m 6,4 km/h (2 Bft) 96,08 %
21.09.2021 00:30 13,0 C 12,2 C 10,0 C 74 % 1025,9 hPa 0,0 l/m 0 min 0 min 0 W/m 6,4 km/h (2 Bft) 100,00 %
21.09.2021 00:28 13,0 C 12,2 C 10,0 C 74 % 1025,8 hPa 0,0 l/m 0 min 0 min 0 W/m 3,2 km/h (1 Bft) 95,65 %
21.09.2021 00:26 13,0 C 12,2 C 10,0 C 74 % 1025,9 hPa 0,0 l/m 0 min 0 min 0 W/m 6,4 km/h (2 Bft) 97,87 %
21.09.2021 00:24 13,0 C 12,2 C 10,0 C 74 % 1025,9 hPa 0,0 l/m 0 min 0 min 0 W/m 6,4 km/h (2 Bft) 97,87 %
21.09.2021 00:22 13,0 C 12,2 C 10,0 C 74 % 1025,9 hPa 0,0 l/m 0 min 0 min 0 W/m 3,2 km/h (1 Bft) 100,00 %
21.09.2021 00:20 13,1 C 12,2 C 10,0 C 74 % 1025,8 hPa 0,0 l/m 0 min 0 min 0 W/m 3,2 km/h (1 Bft) 97,87 %
21.09.2021 00:18 13,1 C 12,2 C 10,0 C 74 % 1025,8 hPa 0,0 l/m 0 min 0 min 0 W/m 6,4 km/h (2 Bft) 100,00 %
21.09.2021 00:16 13,1 C 12,2 C 10,0 C 73 % 1025,7 hPa 0,0 l/m 0 min 0 min 0 W/m 6,4 km/h (2 Bft) 100,00 %
21.09.2021 00:14 13,1 C 12,2 C 10,0 C 73 % 1025,7 hPa 0,0 l/m 0 min 0 min 0 W/m 6,4 km/h (2 Bft) 100,00 %
21.09.2021 00:12 13,1 C 12,2 C 10,6 C 73 % 1025,8 hPa 0,0 l/m 0 min 0 min 0 W/m 6,4 km/h (2 Bft) 100,00 %
21.09.2021 00:10 13,1 C 12,2 C 10,0 C 73 % 1025,7 hPa 0,0 l/m 0 min 0 min 0 W/m 6,4 km/h (2 Bft) 100,00 %
21.09.2021 00:08 13,1 C 12,2 C 10,0 C 73 % 1025,7 hPa 0,0 l/m 0 min 0 min 0 W/m 9,7 km/h (2 Bft) 100,00 %
21.09.2021 00:04 13,1 C 12,2 C 10,0 C 73 % 1025,7 hPa 0,0 l/m 0 min 0 min 0 W/m 6,4 km/h (2 Bft) 100,00 %
21.09.2021 00:02 13,1 C 12,8 C 10,0 C 73 % 1025,6 hPa 0,0 l/m 0 min 0 min 0 W/m 6,4 km/h (2 Bft) 97,62 %
21.09.2021 00:00 13,2 C 12,8 C 10,6 C 73 % 1025,6 hPa 0,0 l/m 0 min 0 min 0 W/m 6,4 km/h (2 Bft) 97,87 %
20.09.2021 23:58 13,2 C 12,8 C 10,6 C 72 % 1025,7 hPa 0,0 l/m 0 min 0 min 0 W/m 6,4 km/h (2 Bft) 97,87 %
20.09.2021 23:56 13,2 C 12,8 C 10,6 C 72 % 1025,7 hPa 0,0 l/m 0 min 0 min 0 W/m 6,4 km/h (2 Bft) 97,87 %
20.09.2021 23:54 13,3 C 12,8 C 10,6 C 72 % 1025,7 hPa 0,0 l/m 0 min 0 min 0 W/m 6,4 km/h (2 Bft) 97,87 %
20.09.2021 23:52 13,3 C 12,8 C 10,6 C 72 % 1025,6 hPa 0,0 l/m 0 min 0 min 0 W/m 12,9 km/h (3 Bft) 95,65 %
20.09.2021 23:50 13,3 C 12,8 C 10,6 C 72 % 1025,6 hPa 0,0 l/m 0 min 0 min 0 W/m 9,7 km/h (2 Bft) 97,87 %
20.09.2021 23:48 13,3 C 12,8 C 10,6 C 72 % 1025,6 hPa 0,0 l/m 0 min 0 min 0 W/m 9,7 km/h (2 Bft) 97,87 %
20.09.2021 23:46 13,3 C 12,8 C 10,6 C 72 % 1025,5 hPa 0,0 l/m 0 min 0 min 0 W/m 9,7 km/h (2 Bft) 97,87 %
20.09.2021 23:44 13,3 C 12,8 C 10,6 C 71 % 1025,5 hPa 0,0 l/m 0 min 0 min 0 W/m 6,4 km/h (2 Bft) 97,87 %
20.09.2021 23:42 13,4 C 12,8 C 10,6 C 71 % 1025,6 hPa 0,0 l/m 0 min 0 min 0 W/m 9,7 km/h (2 Bft) 97,87 %
20.09.2021 23:40 13,4 C 12,8 C 10,6 C 71 % 1025,6 hPa 0,0 l/m 0 min 0 min 0 W/m 16,1 km/h (3 Bft) 97,83 %
20.09.2021 23:38 13,4 C 12,8 C 10,6 C 71 % 1025,6 hPa 0,0 l/m 0 min 0 min 0 W/m 16,1 km/h (3 Bft) 97,87 %
20.09.2021 23:36 13,4 C 12,8 C 10,6 C 71 % 1025,6 hPa 0,0 l/m 0 min 0 min 0 W/m 6,4 km/h (2 Bft) 97,87 %
20.09.2021 23:34 13,4 C 12,8 C 10,6 C 71 % 1025,6 hPa 0,0 l/m 0 min 0 min 0 W/m 12,9 km/h (3 Bft) 97,87 %
20.09.2021 23:32 13,4 C 12,8 C 10,6 C 71 % 1025,6 hPa 0,0 l/m 0 min 0 min 0 W/m 6,4 km/h (2 Bft) 97,87 %
20.09.2021 23:30 13,4 C 12,8 C 10,6 C 71 % 1025,6 hPa 0,0 l/m 0 min 0 min 0 W/m 12,9 km/h (3 Bft) 100,00 %
20.09.2021 23:28 13,4 C 12,8 C 10,6 C 72 % 1025,6 hPa 0,0 l/m 0 min 0 min 0 W/m 6,4 km/h (2 Bft) 100,00 %
20.09.2021 23:26 13,4 C 12,8 C 10,6 C 72 % 1025,6 hPa 0,0 l/m 0 min 0 min 0 W/m 9,7 km/h (2 Bft) 100,00 %
20.09.2021 23:24 13,4 C 12,8 C 10,6 C 72 % 1025,5 hPa 0,0 l/m 0 min 0 min 0 W/m 6,4 km/h (2 Bft) 100,00 %
20.09.2021 23:22 13,4 C 12,8 C 10,6 C 72 % 1025,5 hPa 0,0 l/m 0 min 0 min 0 W/m 12,9 km/h (3 Bft) 100,00 %
20.09.2021 23:20 13,5 C 12,8 C 10,6 C 72 % 1025,5 hPa 0,0 l/m 0 min 0 min 0 W/m 9,7 km/h (2 Bft) 98,18 %
20.09.2021 23:18 13,5 C 12,8 C 10,6 C 72 % 1025,5 hPa 0,0 l/m 0 min 0 min 0 W/m 9,7 km/h (2 Bft) 100,00 %
20.09.2021 23:16 13,5 C 12,8 C 10,6 C 72 % 1025,4 hPa 0,0 l/m 0 min 0 min 0 W/m 6,4 km/h (2 Bft) 100,00 %
20.09.2021 23:14 13,5 C 12,8 C 10,6 C 72 % 1025,4 hPa 0,0 l/m 0 min 0 min 0 W/m 6,4 km/h (2 Bft) 100,00 %
20.09.2021 23:12 13,5 C 12,8 C 10,6 C 71 % 1025,3 hPa 0,0 l/m 0 min 0 min 0 W/m 6,4 km/h (2 Bft) 100,00 %
20.09.2021 23:10 13,6 C 12,8 C 10,6 C 71 % 1025,4 hPa 0,0 l/m 0 min 0 min 0 W/m 6,4 km/h (2 Bft) 100,00 %
20.09.2021 23:08 13,6 C 12,8 C 10,6 C 71 % 1025,3 hPa 0,0 l/m 0 min 0 min 0 W/m 6,4 km/h (2 Bft) 100,00 %
20.09.2021 23:06 13,6 C 12,8 C 10,6 C 70 % 1025,4 hPa 0,0 l/m 0 min 0 min 0 W/m 6,4 km/h (2 Bft) 100,00 %
20.09.2021 23:04 13,6 C 12,8 C 10,6 C 70 % 1025,3 hPa 0,0 l/m 0 min 0 min 0 W/m 12,9 km/h (3 Bft) 100,00 %
20.09.2021 23:02 13,6 C 12,8 C 10,6 C 70 % 1025,4 hPa 0,0 l/m 0 min 0 min 0 W/m 12,9 km/h (3 Bft) 100,00 %
20.09.2021 23:00 13,7 C 12,8 C 10,6 C 70 % 1025,3 hPa 0,0 l/m 0 min 0 min 0 W/m 9,7 km/h (2 Bft) 100,00 %
20.09.2021 22:58 13,7 C 12,8 C 10,6 C 70 % 1025,4 hPa 0,0 l/m 0 min 0 min 0 W/m 9,7 km/h (2 Bft) 100,00 %
20.09.2021 22:56 13,7 C 12,8 C 10,6 C 70 % 1025,4 hPa 0,0 l/m 0 min 0 min 0 W/m 6,4 km/h (2 Bft) 100,00 %
20.09.2021 22:54 13,7 C 12,8 C 10,6 C 70 % 1025,4 hPa 0,0 l/m 0 min 0 min 0 W/m 6,4 km/h (2 Bft) 100,00 %
20.09.2021 22:52 13,7 C 12,8 C 10,6 C 70 % 1025,4 hPa 0,0 l/m 0 min 0 min 0 W/m 3,2 km/h (1 Bft) 97,83 %
20.09.2021 22:50 13,7 C 12,8 C 10,6 C 70 % 1025,4 hPa 0,0 l/m 0 min 0 min 0 W/m 6,4 km/h (2 Bft) 100,00 %
20.09.2021 22:48 13,8 C 12,8 C 10,6 C 70 % 1025,4 hPa 0,0 l/m 0 min 0 min 0 W/m 6,4 km/h (2 Bft) 97,87 %
20.09.2021 22:46 13,8 C 13,3 C 10,6 C 70 % 1025,3 hPa 0,0 l/m 0 min 0 min 0 W/m 6,4 km/h (2 Bft) 100,00 %
20.09.2021 22:44 13,8 C 13,3 C 10,6 C 70 % 1025,4 hPa 0,0 l/m 0 min 0 min 0 W/m 3,2 km/h (1 Bft) 100,00 %
20.09.2021 22:42 13,8 C 12,8 C 10,6 C 70 % 1025,3 hPa 0,0 l/m 0 min 0 min 0 W/m 6,4 km/h (2 Bft) 95,74 %
20.09.2021 22:40 13,8 C 12,8 C 10,6 C 70 % 1025,3 hPa 0,0 l/m 0 min 0 min 0 W/m 6,4 km/h (2 Bft) 95,65 %
20.09.2021 22:38 13,8 C 13,3 C 10,6 C 70 % 1025,3 hPa 0,0 l/m 0 min 0 min 0 W/m 6,4 km/h (2 Bft) 97,87 %
20.09.2021 22:36 13,8 C 13,3 C 10,6 C 70 % 1025,2 hPa 0,0 l/m 0 min 0 min 0 W/m 6,4 km/h (2 Bft) 97,87 %
20.09.2021 22:34 13,8 C 13,3 C 10,6 C 69 % 1025,3 hPa 0,0 l/m 0 min 0 min 0 W/m 16,1 km/h (3 Bft) 97,87 %
20.09.2021 22:32 13,8 C 13,3 C 10,6 C 69 % 1025,3 hPa 0,0 l/m 0 min 0 min 0 W/m 12,9 km/h (3 Bft) 93,62 %
20.09.2021 22:30 13,8 C 13,3 C 10,6 C 70 % 1025,2 hPa 0,0 l/m 0 min 0 min 0 W/m 6,4 km/h (2 Bft) 95,65 %
20.09.2021 22:28 13,8 C 13,3 C 11,1 C 70 % 1025,2 hPa 0,0 l/m 0 min 0 min 0 W/m 6,4 km/h (2 Bft) 95,74 %
20.09.2021 22:26 13,8 C 13,3 C 10,6 C 70 % 1025,2 hPa 0,0 l/m 0 min 0 min 0 W/m 9,7 km/h (2 Bft) 95,74 %
20.09.2021 22:24 13,8 C 13,3 C 10,6 C 69 % 1025,1 hPa 0,0 l/m 0 min 0 min 0 W/m 6,4 km/h (2 Bft) 95,74 %
20.09.2021 22:22 13,8 C 13,3 C 10,6 C 69 % 1025,1 hPa 0,0 l/m 0 min 0 min 0 W/m 9,7 km/h (2 Bft) 95,74 %
20.09.2021 22:20 13,8 C 13,3 C 10,6 C 69 % 1025,1 hPa 0,0 l/m 0 min 0 min 0 W/m 6,4 km/h (2 Bft) 93,62 %
20.09.2021 22:18 13,8 C 13,3 C 11,1 C 69 % 1025,1 hPa 0,0 l/m 0 min 0 min 0 W/m 12,9 km/h (3 Bft) 93,62 %
20.09.2021 22:16 13,8 C 13,3 C 11,1 C 69 % 1025,1 hPa 0,0 l/m 0 min 0 min 0 W/m 6,4 km/h (2 Bft) 93,48 %
20.09.2021 22:14 13,9 C 13,3 C 11,1 C 69 % 1025,0 hPa 0,0 l/m 0 min 0 min 0 W/m 12,9 km/h (3 Bft) 93,62 %
20.09.2021 22:12 13,9 C 13,3 C 11,1 C 69 % 1025,0 hPa 0,0 l/m 0 min 0 min 0 W/m 9,7 km/h (2 Bft) 93,62 %
20.09.2021 22:10 13,9 C 13,3 C 11,1 C 69 % 1025,0 hPa 0,0 l/m 0 min 0 min 0 W/m 6,4 km/h (2 Bft) 95,74 %
20.09.2021 22:08 13,9 C 13,3 C 11,1 C 69 % 1025,1 hPa 0,0 l/m 0 min 0 min 0 W/m 12,9 km/h (3 Bft) 95,74 %
20.09.2021 22:06 13,9 C 13,3 C 11,1 C 69 % 1025,1 hPa 0,0 l/m 0 min 0 min 0 W/m 6,4 km/h (2 Bft) 95,65 %
20.09.2021 22:04 13,9 C 13,3 C 11,1 C 69 % 1025,1 hPa 0,0 l/m 0 min 0 min 0 W/m 6,4 km/h (2 Bft) 93,62 %
20.09.2021 22:02 13,9 C 13,3 C 11,1 C 69 % 1025,1 hPa 0,0 l/m 0 min 0 min 0 W/m 6,4 km/h (2 Bft) 89,36 %
20.09.2021 22:00 13,9 C 13,3 C 11,1 C 68 % 1025,1 hPa 0,0 l/m 0 min 0 min 0 W/m 12,9 km/h (3 Bft) 89,36 %
20.09.2021 21:58 13,9 C 13,3 C 11,1 C 69 % 1025,1 hPa 0,0 l/m 0 min 0 min 0 W/m 16,1 km/h (3 Bft) 95,74 %
20.09.2021 21:56 13,9 C 13,3 C 11,1 C 69 % 1025,1 hPa 0,0 l/m 0 min 0 min 0 W/m 6,4 km/h (2 Bft) 91,49 %
20.09.2021 21:54 13,9 C 13,3 C 11,1 C 69 % 1025,1 hPa 0,0 l/m 0 min 0 min 0 W/m 9,7 km/h (2 Bft) 93,48 %
20.09.2021 21:52 14,0 C 13,3 C 11,1 C 69 % 1025,0 hPa 0,0 l/m 0 min 0 min 0 W/m 9,7 km/h (2 Bft) 93,62 %
20.09.2021 21:50 14,0 C 13,3 C 11,1 C 69 % 1025,0 hPa 0,0 l/m 0 min 0 min 0 W/m 9,7 km/h (2 Bft) 95,74 %
20.09.2021 21:48 13,9 C 13,3 C 11,1 C 69 % 1025,0 hPa 0,0 l/m 0 min 0 min 0 W/m 12,9 km/h (3 Bft) 95,74 %
20.09.2021 21:46 13,9 C 13,3 C 11,1 C 69 % 1025,0 hPa 0,0 l/m 0 min 0 min 0 W/m 16,1 km/h (3 Bft) 95,74 %
20.09.2021 21:44 13,9 C 13,3 C 11,1 C 69 % 1025,0 hPa 0,0 l/m 0 min 0 min 0 W/m 9,7 km/h (2 Bft) 91,49 %
20.09.2021 21:42 14,0 C 13,3 C 11,1 C 69 % 1024,9 hPa 0,0 l/m 0 min 0 min 0 W/m 9,7 km/h (2 Bft) 95,65 %
20.09.2021 21:40 14,0 C 13,3 C 11,1 C 69 % 1024,9 hPa 0,0 l/m 0 min 0 min 0 W/m 6,4 km/h (2 Bft) 97,87 %
20.09.2021 21:38 14,0 C 13,3 C 11,1 C 69 % 1024,9 hPa 0,0 l/m 0 min 0 min 0 W/m 6,4 km/h (2 Bft) 100,00 %
20.09.2021 21:36 14,0 C 13,3 C 11,1 C 69 % 1024,9 hPa 0,0 l/m 0 min 0 min 0 W/m 6,4 km/h (2 Bft) 100,00 %
20.09.2021 21:34 14,0 C 13,3 C 11,1 C 69 % 1024,8 hPa 0,0 l/m 0 min 0 min 0 W/m 9,7 km/h (2 Bft) 97,87 %
20.09.2021 21:32 14,0 C 13,3 C 11,1 C 69 % 1024,8 hPa 0,0 l/m 0 min 0 min 0 W/m 12,9 km/h (3 Bft) 100,00 %
20.09.2021 21:30 14,0 C 13,3 C 11,1 C 69 % 1024,8 hPa 0,0 l/m 0 min 0 min 0 W/m 16,1 km/h (3 Bft) 100,00 %
20.09.2021 21:28 14,0 C 13,3 C 11,1 C 69 % 1024,8 hPa 0,0 l/m 0 min 0 min 0 W/m 6,4 km/h (2 Bft) 97,83 %
20.09.2021 21:26 14,0 C 13,3 C 11,1 C 69 % 1024,7 hPa 0,0 l/m 0 min 0 min 0 W/m 9,7 km/h (2 Bft) 100,00 %
20.09.2021 21:24 14,0 C 13,3 C 11,1 C 69 % 1024,7 hPa 0,0 l/m 0 min 0 min 0 W/m 9,7 km/h (2 Bft) 100,00 %
20.09.2021 21:22 14,0 C 13,3 C 11,1 C 69 % 1024,7 hPa 0,0 l/m 0 min 0 min 0 W/m 6,4 km/h (2 Bft) 100,00 %
20.09.2021 21:20 14,0 C 13,3 C 11,1 C 69 % 1024,6 hPa 0,0 l/m 0 min 0 min 0 W/m 9,7 km/h (2 Bft) 100,00 %
20.09.2021 21:18 14,0 C 13,3 C 11,1 C 69 % 1024,6 hPa 0,0 l/m 0 min 0 min 0 W/m 6,4 km/h (2 Bft) 100,00 %
20.09.2021 21:16 14,0 C 13,3 C 11,1 C 69 % 1024,5 hPa 0,0 l/m 0 min 0 min 0 W/m 12,9 km/h (3 Bft) 100,00 %
20.09.2021 21:14 14,0 C 13,3 C 11,1 C 68 % 1024,4 hPa 0,0 l/m 0 min 0 min 0 W/m 6,4 km/h (2 Bft) 100,00 %
20.09.2021 21:12 14,0 C 13,3 C 11,1 C 68 % 1024,4 hPa 0,0 l/m 0 min 0 min 0 W/m 12,9 km/h (3 Bft) 100,00 %
20.09.2021 21:10 14,0 C 13,3 C 11,1 C 69 % 1024,4 hPa 0,0 l/m 0 min 0 min 0 W/m 6,4 km/h (2 Bft) 100,00 %
20.09.2021 21:08 14,0 C 13,3 C 11,1 C 68 % 1024,4 hPa 0,0 l/m 0 min 0 min 0 W/m 16,1 km/h (3 Bft) 100,00 %
20.09.2021 21:06 14,0 C 13,3 C 11,1 C 68 % 1024,3 hPa 0,0 l/m 0 min 0 min 0 W/m 16,1 km/h (3 Bft) 100,00 %
20.09.2021 21:04 14,0 C 13,3 C 11,1 C 68 % 1024,3 hPa 0,0 l/m 0 min 0 min 0 W/m 6,4 km/h (2 Bft) 100,00 %
20.09.2021 21:02 14,0 C 13,3 C 11,1 C 69 % 1024,3 hPa 0,0 l/m 0 min 0 min 0 W/m 6,4 km/h (2 Bft) 97,87 %
20.09.2021 21:00 14,0 C 13,3 C 11,1 C 69 % 1024,4 hPa 0,0 l/m 0 min 0 min 0 W/m 9,7 km/h (2 Bft) 100,00 %
20.09.2021 20:58 14,0 C 13,3 C 11,1 C 68 % 1024,3 hPa 0,0 l/m 0 min 0 min 0 W/m 6,4 km/h (2 Bft) 100,00 %
20.09.2021 20:56 14,0 C 13,3 C 11,1 C 68 % 1024,3 hPa 0,0 l/m 0 min 0 min 0 W/m 6,4 km/h (2 Bft) 97,87 %
20.09.2021 20:54 14,0 C 13,3 C 11,1 C 68 % 1024,3 hPa 0,0 l/m 0 min 0 min 0 W/m 9,7 km/h (2 Bft) 97,87 %
20.09.2021 20:52 14,0 C 13,3 C 11,1 C 68 % 1024,3 hPa 0,0 l/m 0 min 0 min 0 W/m 12,9 km/h (3 Bft) 100,00 %
20.09.2021 20:50 14,0 C 13,3 C 11,1 C 68 % 1024,2 hPa 0,0 l/m 0 min 0 min 0 W/m 16,1 km/h (3 Bft) 100,00 %
20.09.2021 20:48 13,9 C 13,3 C 11,1 C 68 % 1024,2 hPa 0,0 l/m 0 min 0 min 0 W/m 6,4 km/h (2 Bft) 100,00 %
20.09.2021 20:46 13,9 C 13,3 C 11,1 C 68 % 1024,2 hPa 0,0 l/m 0 min 0 min 0 W/m 6,4 km/h (2 Bft) 100,00 %
20.09.2021 20:44 13,9 C 13,3 C 11,1 C 69 % 1024,2 hPa 0,0 l/m 0 min 0 min 0 W/m 9,7 km/h (2 Bft) 100,00 %
20.09.2021 20:42 13,9 C 13,3 C 11,1 C 69 % 1024,1 hPa 0,0 l/m 0 min 0 min 0 W/m 6,4 km/h (2 Bft) 100,00 %
20.09.2021 20:40 13,9 C 13,3 C 11,1 C 68 % 1024,0 hPa 0,0 l/m 0 min 0 min 0 W/m 9,7 km/h (2 Bft) 97,83 %
20.09.2021 20:38 13,9 C 13,3 C 11,1 C 69 % 1024,0 hPa 0,0 l/m 0 min 0 min 0 W/m 12,9 km/h (3 Bft) 100,00 %
20.09.2021 20:36 13,9 C 13,3 C 11,1 C 69 % 1024,0 hPa 0,0 l/m 0 min 0 min 0 W/m 12,9 km/h (3 Bft) 100,00 %
20.09.2021 20:34 13,8 C 13,3 C 11,1 C 69 % 1024,0 hPa 0,0 l/m 0 min 0 min 0 W/m 9,7 km/h (2 Bft) 100,00 %
20.09.2021 20:32 13,8 C 13,3 C 11,1 C 69 % 1023,9 hPa 0,0 l/m 0 min 0 min 0 W/m 9,7 km/h (2 Bft) 100,00 %
20.09.2021 20:30 13,8 C 13,3 C 11,1 C 70 % 1023,9 hPa 0,0 l/m 0 min 0 min 0 W/m 6,4 km/h (2 Bft) 97,87 %
20.09.2021 20:28 13,8 C 13,3 C 11,1 C 70 % 1023,9 hPa 0,0 l/m 0 min 0 min 0 W/m 3,2 km/h (1 Bft) 100,00 %
20.09.2021 20:26 13,8 C 13,3 C 11,1 C 70 % 1023,8 hPa 0,0 l/m 0 min 0 min 0 W/m 6,4 km/h (2 Bft) 100,00 %
20.09.2021 20:24 13,8 C 13,3 C 11,1 C 70 % 1023,9 hPa 0,0 l/m 0 min 0 min 0 W/m 6,4 km/h (2 Bft) 100,00 %
20.09.2021 20:22 13,8 C 13,3 C 11,1 C 70 % 1023,8 hPa 0,0 l/m 0 min 0 min 0 W/m 6,4 km/h (2 Bft) 100,00 %
20.09.2021 20:20 13,8 C 13,3 C 11,1 C 70 % 1023,8 hPa 0,0 l/m 0 min 0 min 0 W/m 6,4 km/h (2 Bft) 95,65 %
20.09.2021 20:18 13,8 C 13,3 C 11,1 C 70 % 1023,8 hPa 0,0 l/m 0 min 0 min 0 W/m 9,7 km/h (2 Bft) 93,62 %
20.09.2021 20:16 13,7 C 13,3 C 11,1 C 70 % 1023,8 hPa 0,0 l/m 0 min 0 min 0 W/m 9,7 km/h (2 Bft) 97,87 %
20.09.2021 20:14 13,7 C 13,3 C 11,1 C 70 % 1023,8 hPa 0,0 l/m 0 min 0 min 0 W/m 6,4 km/h (2 Bft) 97,87 %
20.09.2021 20:12 13,8 C 12,8 C 11,1 C 70 % 1023,7 hPa 0,0 l/m 0 min 0 min 0 W/m 9,7 km/h (2 Bft) 97,87 %
20.09.2021 20:10 13,8 C 12,8 C 11,1 C 70 % 1023,6 hPa 0,0 l/m 0 min 0 min 0 W/m 12,9 km/h (3 Bft) 97,87 %
20.09.2021 20:08 13,8 C 12,8 C 10,6 C 70 % 1023,6 hPa 0,0 l/m 0 min 0 min 0 W/m 16,1 km/h (3 Bft) 95,65 %
20.09.2021 20:06 13,8 C 12,8 C 11,1 C 70 % 1023,6 hPa 0,0 l/m 0 min 0 min 0 W/m 6,4 km/h (2 Bft) 95,74 %
20.09.2021 20:04 13,8 C 12,8 C 11,1 C 70 % 1023,5 hPa 0,0 l/m 0 min 0 min 0 W/m 6,4 km/h (2 Bft) 95,74 %
20.09.2021 20:02 13,8 C 12,8 C 11,1 C 70 % 1023,5 hPa 0,0 l/m 0 min 0 min 0 W/m 9,7 km/h (2 Bft) 95,74 %
20.09.2021 20:00 13,8 C 12,8 C 10,6 C 70 % 1023,5 hPa 0,0 l/m 0 min 0 min 0 W/m 3,2 km/h (1 Bft) 95,74 %
20.09.2021 19:58 13,9 C 12,8 C 10,6 C 70 % 1023,5 hPa 0,0 l/m 0 min 0 min 0 W/m 6,4 km/h (2 Bft) 95,74 %
20.09.2021 19:56 13,9 C 12,8 C 10,6 C 70 % 1023,5 hPa 0,0 l/m 0 min 0 min 0 W/m 3,2 km/h (1 Bft) 93,48 %
20.09.2021 19:54 13,9 C 12,8 C 10,6 C 70 % 1023,5 hPa 0,0 l/m 0 min 0 min 0 W/m 3,2 km/h (1 Bft) 93,62 %
20.09.2021 19:52 13,9 C 12,8 C 10,6 C 69 % 1023,4 hPa 0,0 l/m 0 min 0 min 0 W/m 12,9 km/h (3 Bft) 95,74 %
20.09.2021 19:50 14,0 C 12,8 C 10,6 C 69 % 1023,4 hPa 0,0 l/m 0 min 0 min 0 W/m 3,2 km/h (1 Bft) 91,49 %
20.09.2021 19:48 14,0 C 12,8 C 10,6 C 69 % 1023,4 hPa 0,0 l/m 0 min 0 min 0 W/m 6,4 km/h (2 Bft) 97,87 %
20.09.2021 19:46 14,1 C 12,8 C 11,1 C 69 % 1023,3 hPa 0,0 l/m 0 min 0 min 0 W/m 6,4 km/h (2 Bft) 97,87 %
20.09.2021 19:44 14,2 C 13,3 C 11,1 C 69 % 1023,3 hPa 0,0 l/m 0 min 0 min 0 W/m 6,4 km/h (2 Bft) 95,65 %
20.09.2021 19:42 14,2 C 13,3 C 11,1 C 69 % 1023,3 hPa 0,0 l/m 0 min 0 min 0 W/m 12,9 km/h (3 Bft) 95,74 %
20.09.2021 19:40 14,2 C 13,3 C 11,1 C 68 % 1023,2 hPa 0,0 l/m 0 min 0 min 0 W/m 9,7 km/h (2 Bft) 95,74 %
20.09.2021 19:38 14,2 C 13,3 C 11,1 C 68 % 1023,2 hPa 0,0 l/m 0 min 0 min 0 W/m 12,9 km/h (3 Bft) 97,87 %
20.09.2021 19:36 14,2 C 13,3 C 11,1 C 68 % 1023,2 hPa 0,0 l/m 0 min 0 min 4 W/m 12,9 km/h (3 Bft) 97,87 %
20.09.2021 19:34 14,3 C 13,3 C 11,1 C 68 % 1023,2 hPa 0,0 l/m 0 min 0 min 5 W/m 9,7 km/h (2 Bft) 95,74 %
20.09.2021 19:32 14,4 C 13,3 C 11,1 C 68 % 1023,2 hPa 0,0 l/m 0 min 0 min 5 W/m 9,7 km/h (2 Bft) 95,65 %
20.09.2021 19:30 14,4 C 13,3 C 11,1 C 68 % 1023,1 hPa 0,0 l/m 0 min 0 min 7 W/m 6,4 km/h (2 Bft) 95,74 %
20.09.2021 19:28 14,4 C 13,3 C 11,1 C 68 % 1023,0 hPa 0,0 l/m 0 min 0 min 9 W/m 6,4 km/h (2 Bft) 97,87 %
20.09.2021 19:26 14,5 C 13,9 C 11,1 C 68 % 1023,1 hPa 0,0 l/m 0 min 0 min 9 W/m 12,9 km/h (3 Bft) 97,87 %
20.09.2021 19:24 14,5 C 13,9 C 11,1 C 68 % 1023,0 hPa 0,0 l/m 0 min 0 min 10 W/m 12,9 km/h (3 Bft) 95,74 %
20.09.2021 19:22 14,6 C 13,9 C 11,1 C 68 % 1023,0 hPa 0,0 l/m 0 min 0 min 11 W/m 6,4 km/h (2 Bft) 95,74 %
20.09.2021 19:20 14,6 C 13,9 C 11,7 C 68 % 1023,0 hPa 0,0 l/m 0 min 0 min 12 W/m 9,7 km/h (2 Bft) 97,83 %
20.09.2021 19:18 14,7 C 13,9 C 11,7 C 68 % 1023,0 hPa 0,0 l/m 0 min 0 min 12 W/m 12,9 km/h (3 Bft) 97,87 %
20.09.2021 19:16 14,8 C 13,9 C 11,7 C 67 % 1023,0 hPa 0,0 l/m 0 min 0 min 12 W/m 6,4 km/h (2 Bft) 91,49 %
20.09.2021 19:14 14,8 C 13,9 C 11,7 C 67 % 1022,9 hPa 0,0 l/m 0 min 0 min 13 W/m 12,9 km/h (3 Bft) 95,74 %
20.09.2021 19:12 14,8 C 13,9 C 11,7 C 67 % 1023,0 hPa 0,0 l/m 0 min 0 min 16 W/m 9,7 km/h (2 Bft) 97,87 %
20.09.2021 19:10 14,9 C 13,9 C 11,7 C 67 % 1023,0 hPa 0,0 l/m 0 min 0 min 17 W/m 9,7 km/h (2 Bft) 97,87 %
20.09.2021 19:08 14,9 C 13,9 C 11,7 C 67 % 1022,9 hPa 0,0 l/m 0 min 0 min 17 W/m 6,4 km/h (2 Bft) 97,83 %
20.09.2021 19:06 15,0 C 14,4 C 11,7 C 67 % 1022,9 hPa 0,0 l/m 0 min 0 min 20 W/m 9,7 km/h (2 Bft) 93,62 %
20.09.2021 19:04 15,0 C 14,4 C 12,3 C 67 % 1022,9 hPa 0,0 l/m 0 min 0 min 23 W/m 9,7 km/h (2 Bft) 97,87 %
20.09.2021 19:02 15,1 C 14,4 C 12,3 C 67 % 1022,9 hPa 0,0 l/m 0 min 0 min 24 W/m 12,9 km/h (3 Bft) 95,74 %
20.09.2021 19:00 15,1 C 14,4 C 12,3 C 67 % 1022,9 hPa 0,0 l/m 0 min 0 min 24 W/m 6,4 km/h (2 Bft) 97,87 %
20.09.2021 18:58 15,1 C 14,4 C 12,3 C 67 % 1022,9 hPa 0,0 l/m 0 min 0 min 23 W/m 9,7 km/h (2 Bft) 95,74 %
20.09.2021 18:56 15,1 C 14,4 C 12,3 C 66 % 1022,9 hPa 0,0 l/m 0 min 0 min 25 W/m 6,4 km/h (2 Bft) 95,74 %
20.09.2021 18:54 15,1 C 14,4 C 12,3 C 66 % 1022,9 hPa 0,0 l/m 0 min 0 min 28 W/m 16,1 km/h (3 Bft) 97,83 %
20.09.2021 18:52 15,2 C 14,4 C 12,3 C 66 % 1022,9 hPa 0,0 l/m 0 min 0 min 32 W/m 12,9 km/h (3 Bft) 95,74 %
20.09.2021 18:50 15,2 C 14,4 C 12,3 C 66 % 1022,9 hPa 0,0 l/m 0 min 0 min 34 W/m 9,7 km/h (2 Bft) 95,74 %
20.09.2021 18:48 15,3 C 14,4 C 12,3 C 66 % 1022,9 hPa 0,0 l/m 0 min 0 min 36 W/m 12,9 km/h (3 Bft) 97,87 %
20.09.2021 18:46 15,3 C 14,4 C 12,3 C 67 % 1022,8 hPa 0,0 l/m 0 min 0 min 38 W/m 12,9 km/h (3 Bft) 95,74 %
20.09.2021 18:44 15,3 C 14,4 C 12,3 C 67 % 1022,8 hPa 0,0 l/m 0 min 0 min 40 W/m 22,5 km/h (4 Bft) 97,87 %
20.09.2021 18:42 15,3 C 15,0 C 12,3 C 66 % 1022,8 hPa 0,0 l/m 0 min 0 min 42 W/m 3,2 km/h (1 Bft) 97,83 %
20.09.2021 18:40 15,4 C 15,0 C 12,3 C 66 % 1022,7 hPa 0,0 l/m 0 min 0 min 43 W/m 9,7 km/h (2 Bft) 100,00 %
20.09.2021 18:38 15,4 C 15,0 C 12,3 C 66 % 1022,6 hPa 0,0 l/m 0 min 0 min 46 W/m 12,9 km/h (3 Bft) 100,00 %
20.09.2021 18:36 15,4 C 15,0 C 12,3 C 66 % 1022,6 hPa 0,0 l/m 0 min 0 min 47 W/m 16,1 km/h (3 Bft) 100,00 %
20.09.2021 18:34 15,5 C 15,0 C 12,3 C 66 % 1022,5 hPa 0,0 l/m 0 min 0 min 49 W/m 12,9 km/h (3 Bft) 100,00 %
20.09.2021 18:32 15,5 C 15,0 C 12,3 C 66 % 1022,5 hPa 0,0 l/m 0 min 0 min 53 W/m 16,1 km/h (3 Bft) 100,00 %
20.09.2021 18:30 15,6 C 15,0 C 12,8 C 66 % 1022,5 hPa 0,0 l/m 0 min 0 min 59 W/m 12,9 km/h (3 Bft) 97,83 %
20.09.2021 18:28 15,6 C 15,0 C 12,8 C 67 % 1022,4 hPa 0,0 l/m 0 min 0 min 64 W/m 9,7 km/h (2 Bft) 100,00 %
20.09.2021 18:26 15,7 C 15,6 C 12,8 C 66 % 1022,4 hPa 0,0 l/m 0 min 0 min 69 W/m 9,7 km/h (2 Bft) 100,00 %
20.09.2021 18:24 15,8 C 15,6 C 12,8 C 66 % 1022,4 hPa 0,0 l/m 0 min 0 min 73 W/m 12,9 km/h (3 Bft) 97,87 %
20.09.2021 18:22 15,8 C 15,6 C 12,8 C 66 % 1022,4 hPa 0,0 l/m 0 min 0 min 78 W/m 12,9 km/h (3 Bft) 97,87 %
20.09.2021 18:20 15,8 C 16,1 C 12,8 C 65 % 1022,3 hPa 0,0 l/m 0 min 0 min 82 W/m 9,7 km/h (2 Bft) 95,74 %
20.09.2021 18:18 15,8 C 16,7 C 13,4 C 66 % 1022,3 hPa 0,0 l/m 2 min 0 min 98 W/m 12,9 km/h (3 Bft) 97,83 %
20.09.2021 18:16 15,9 C 16,7 C 12,8 C 66 % 1022,2 hPa 0,0 l/m 2 min 0 min 108 W/m 12,9 km/h (3 Bft) 97,87 %
20.09.2021 18:14 15,9 C 16,7 C 13,4 C 65 % 1022,1 hPa 0,0 l/m 2 min 0 min 111 W/m 16,1 km/h (3 Bft) 97,87 %
20.09.2021 18:12 15,8 C 16,7 C 13,4 C 66 % 1022,2 hPa 0,0 l/m 2 min 0 min 129 W/m 25,7 km/h (4 Bft) 95,74 %
20.09.2021 18:10 15,9 C 16,7 C 13,4 C 65 % 1022,2 hPa 0,0 l/m 2 min 0 min 152 W/m 12,9 km/h (3 Bft) 97,87 %
20.09.2021 18:08 15,9 C 16,7 C 13,4 C 65 % 1022,2 hPa 0,0 l/m 4 min 0 min 153 W/m 19,3 km/h (3 Bft) 96,91 %
20.09.2021 18:04 15,9 C 16,1 C 13,4 C 66 % 1022,2 hPa 0,0 l/m 2 min 0 min 137 W/m 16,1 km/h (3 Bft) 95,74 %
20.09.2021 18:02 15,9 C 16,1 C 13,4 C 66 % 1022,1 hPa 0,0 l/m 2 min 0 min 148 W/m 12,9 km/h (3 Bft) 97,92 %
20.09.2021 18:00 15,9 C 16,1 C 13,4 C 66 % 1022,2 hPa 0,0 l/m 2 min 0 min 134 W/m 16,1 km/h (3 Bft) 97,83 %
20.09.2021 17:58 15,9 C 16,1 C 13,4 C 65 % 1022,1 hPa 0,0 l/m 2 min 0 min 135 W/m 16,1 km/h (3 Bft) 95,74 %
20.09.2021 17:56 15,9 C 16,1 C 13,4 C 65 % 1022,1 hPa 0,0 l/m 2 min 0 min 135 W/m 16,1 km/h (3 Bft) 97,87 %
20.09.2021 17:54 15,9 C 16,1 C 13,4 C 66 % 1022,1 hPa 0,0 l/m 2 min 0 min 132 W/m 12,9 km/h (3 Bft) 97,87 %
20.09.2021 17:52 15,9 C 16,1 C 13,4 C 65 % 1022,1 hPa 0,0 l/m 0 min 0 min 125 W/m 9,7 km/h (2 Bft) 97,87 %
20.09.2021 17:50 15,9 C 16,1 C 13,4 C 66 % 1022,1 hPa 0,0 l/m 0 min 0 min 113 W/m 12,9 km/h (3 Bft) 100,00 %
20.09.2021 17:48 15,9 C 16,1 C 13,4 C 65 % 1022,0 hPa 0,0 l/m 0 min 0 min 103 W/m 9,7 km/h (2 Bft) 100,00 %
20.09.2021 17:46 16,0 C 16,1 C 13,4 C 65 % 1022,0 hPa 0,0 l/m 0 min 0 min 104 W/m 12,9 km/h (3 Bft) 100,00 %
20.09.2021 17:44 16,0 C 16,1 C 13,4 C 65 % 1021,9 hPa 0,0 l/m 0 min 0 min 106 W/m 12,9 km/h (3 Bft) 100,00 %
20.09.2021 17:42 16,1 C 16,1 C 13,4 C 66 % 1022,0 hPa 0,0 l/m 0 min 0 min 110 W/m 12,9 km/h (3 Bft) 97,87 %
20.09.2021 17:40 16,1 C 16,1 C 13,4 C 66 % 1021,9 hPa 0,0 l/m 0 min 0 min 114 W/m 9,7 km/h (2 Bft) 100,00 %
20.09.2021 17:38 16,2 C 16,1 C 13,4 C 66 % 1021,9 hPa 0,0 l/m 0 min 0 min 116 W/m 9,7 km/h (2 Bft) 100,00 %
20.09.2021 17:36 16,3 C 16,1 C 13,4 C 66 % 1021,9 hPa 0,0 l/m 0 min 0 min 118 W/m 9,7 km/h (2 Bft) 97,83 %
20.09.2021 17:34 16,4 C 16,7 C 13,4 C 66 % 1021,8 hPa 0,0 l/m 0 min 0 min 121 W/m 12,9 km/h (3 Bft) 100,00 %
20.09.2021 17:32 16,4 C 16,7 C 13,4 C 65 % 1021,8 hPa 0,0 l/m 0 min 0 min 141 W/m 12,9 km/h (3 Bft) 97,92 %
20.09.2021 17:30 16,5 C 16,7 C 13,9 C 65 % 1021,8 hPa 0,0 l/m 0 min 0 min 141 W/m 12,9 km/h (3 Bft) 97,87 %
20.09.2021 17:28 16,5 C 16,7 C 13,9 C 66 % 1021,8 hPa 0,0 l/m 0 min 0 min 151 W/m 12,9 km/h (3 Bft) 95,74 %
20.09.2021 17:26 16,5 C 16,7 C 13,9 C 66 % 1021,8 hPa 0,0 l/m 0 min 0 min 138 W/m 12,9 km/h (3 Bft) 97,87 %
20.09.2021 17:24 16,5 C 16,7 C 13,9 C 65 % 1021,8 hPa 0,0 l/m 0 min 0 min 129 W/m 9,7 km/h (2 Bft) 97,83 %
20.09.2021 17:22 16,6 C 16,7 C 13,9 C 65 % 1021,8 hPa 0,0 l/m 0 min 0 min 133 W/m 19,3 km/h (3 Bft) 97,87 %
20.09.2021 17:20 16,6 C 16,7 C 13,9 C 66 % 1021,8 hPa 0,0 l/m 0 min 0 min 137 W/m 19,3 km/h (3 Bft) 97,87 %
20.09.2021 17:18 16,6 C 16,7 C 13,9 C 67 % 1021,8 hPa 0,0 l/m 0 min 0 min 135 W/m 12,9 km/h (3 Bft) 95,74 %
20.09.2021 17:16 16,6 C 16,7 C 13,9 C 66 % 1021,7 hPa 0,0 l/m 0 min 0 min 137 W/m 16,1 km/h (3 Bft) 97,87 %
20.09.2021 17:14 16,7 C 16,7 C 13,9 C 67 % 1021,7 hPa 0,0 l/m 0 min 0 min 141 W/m 12,9 km/h (3 Bft) 97,87 %
20.09.2021 17:12 16,7 C 16,7 C 13,9 C 67 % 1021,7 hPa 0,0 l/m 0 min 0 min 141 W/m 12,9 km/h (3 Bft) 95,65 %
20.09.2021 17:10 16,8 C 16,7 C 13,9 C 68 % 1021,7 hPa 0,0 l/m 0 min 0 min 142 W/m 12,9 km/h (3 Bft) 97,87 %
20.09.2021 17:08 16,8 C 16,7 C 13,9 C 68 % 1021,6 hPa 0,0 l/m 0 min 0 min 144 W/m 9,7 km/h (2 Bft) 97,87 %
20.09.2021 17:06 16,8 C 16,7 C 13,9 C 68 % 1021,6 hPa 0,0 l/m 0 min 0 min 141 W/m 6,4 km/h (2 Bft) 97,87 %
20.09.2021 17:04 16,8 C 16,7 C 13,9 C 67 % 1021,6 hPa 0,0 l/m 0 min 0 min 141 W/m 9,7 km/h (2 Bft) 97,87 %
20.09.2021 17:02 16,8 C 16,7 C 13,9 C 66 % 1021,6 hPa 0,0 l/m 0 min 0 min 146 W/m 12,9 km/h (3 Bft) 97,87 %
20.09.2021 17:00 16,8 C 16,7 C 13,9 C 66 % 1021,5 hPa 0,0 l/m 0 min 0 min 150 W/m 16,1 km/h (3 Bft) 95,65 %
20.09.2021 16:58 16,9 C 16,7 C 13,9 C 66 % 1021,6 hPa 0,0 l/m 0 min 0 min 156 W/m 6,4 km/h (2 Bft) 97,87 %
20.09.2021 16:56 16,9 C 16,7 C 13,9 C 67 % 1021,5 hPa 0,0 l/m 0 min 0 min 162 W/m 6,4 km/h (2 Bft) 97,87 %
20.09.2021 16:54 16,9 C 16,7 C 13,9 C 67 % 1021,5 hPa 0,0 l/m 0 min 0 min 162 W/m 9,7 km/h (2 Bft) 95,74 %
20.09.2021 16:52 16,9 C 16,7 C 13,9 C 66 % 1021,5 hPa 0,0 l/m 0 min 0 min 158 W/m 12,9 km/h (3 Bft) 97,87 %
20.09.2021 16:50 16,9 C 16,7 C 14,5 C 65 % 1021,5 hPa 0,0 l/m 0 min 0 min 154 W/m 19,3 km/h (3 Bft) 93,62 %
20.09.2021 16:48 17,0 C 16,7 C 14,5 C 66 % 1021,5 hPa 0,0 l/m 0 min 0 min 151 W/m 12,9 km/h (3 Bft) 97,83 %
20.09.2021 16:46 17,0 C 17,2 C 14,5 C 66 % 1021,5 hPa 0,0 l/m 0 min 0 min 154 W/m 12,9 km/h (3 Bft) 95,74 %
20.09.2021 16:44 17,0 C 17,2 C 14,5 C 66 % 1021,5 hPa 0,0 l/m 0 min 0 min 154 W/m 9,7 km/h (2 Bft) 97,87 %
20.09.2021 16:42 17,1 C 17,2 C 14,5 C 66 % 1021,5 hPa 0,0 l/m 0 min 0 min 154 W/m 9,7 km/h (2 Bft) 95,74 %
20.09.2021 16:40 17,1 C 17,2 C 14,5 C 65 % 1021,5 hPa 0,0 l/m 0 min 0 min 160 W/m 16,1 km/h (3 Bft) 95,74 %
20.09.2021 16:38 17,1 C 17,2 C 14,5 C 66 % 1021,5 hPa 0,0 l/m 0 min 0 min 166 W/m 12,9 km/h (3 Bft) 97,83 %
20.09.2021 16:36 17,2 C 17,2 C 14,5 C 65 % 1021,5 hPa 0,0 l/m 0 min 0 min 170 W/m 12,9 km/h (3 Bft) 97,87 %
20.09.2021 16:34 17,2 C 17,2 C 14,5 C 65 % 1021,4 hPa 0,0 l/m 0 min 0 min 173 W/m 12,9 km/h (3 Bft) 97,87 %
20.09.2021 16:32 17,3 C 17,8 C 14,5 C 66 % 1021,4 hPa 0,0 l/m 0 min 0 min 172 W/m 12,9 km/h (3 Bft) 97,87 %
20.09.2021 16:30 17,3 C 17,2 C 14,5 C 66 % 1021,5 hPa 0,0 l/m 0 min 0 min 171 W/m 6,4 km/h (2 Bft) 93,62 %
20.09.2021 16:28 17,3 C 17,2 C 14,5 C 66 % 1021,5 hPa 0,0 l/m 0 min 0 min 171 W/m 3,2 km/h (1 Bft) 97,87 %
20.09.2021 16:26 17,3 C 17,2 C 14,5 C 66 % 1021,5 hPa 0,0 l/m 0 min 0 min 171 W/m 9,7 km/h (2 Bft) 95,74 %
20.09.2021 16:24 17,3 C 17,2 C 14,5 C 66 % 1021,5 hPa 0,0 l/m 0 min 0 min 166 W/m 3,2 km/h (1 Bft) 95,65 %
20.09.2021 16:22 17,3 C 17,2 C 14,5 C 64 % 1021,5 hPa 0,0 l/m 0 min 0 min 162 W/m 6,4 km/h (2 Bft) 95,74 %
20.09.2021 16:20 17,4 C 17,2 C 14,5 C 64 % 1021,4 hPa 0,0 l/m 0 min 0 min 157 W/m 3,2 km/h (1 Bft) 95,74 %
20.09.2021 16:18 17,4 C 17,2 C 14,5 C 62 % 1021,5 hPa 0,0 l/m 0 min 0 min 151 W/m 9,7 km/h (2 Bft) 95,74 %
20.09.2021 16:16 17,5 C 17,2 C 14,5 C 62 % 1021,5 hPa 0,0 l/m 0 min 0 min 152 W/m 9,7 km/h (2 Bft) 95,74 %
20.09.2021 16:14 17,5 C 17,2 C 14,5 C 62 % 1021,5 hPa 0,0 l/m 0 min 0 min 162 W/m 12,9 km/h (3 Bft) 95,65 %
20.09.2021 16:12 17,6 C 17,2 C 14,5 C 61 % 1021,5 hPa 0,0 l/m 0 min 0 min 167 W/m 16,1 km/h (3 Bft) 97,87 %
20.09.2021 16:10 17,6 C 17,8 C 15,0 C 63 % 1021,5 hPa 0,0 l/m 0 min 0 min 170 W/m 16,1 km/h (3 Bft) 95,74 %
20.09.2021 16:08 17,7 C 17,8 C 15,0 C 63 % 1021,5 hPa 0,0 l/m 0 min 0 min 174 W/m 6,4 km/h (2 Bft) 93,62 %
20.09.2021 16:06 17,8 C 17,8 C 15,0 C 62 % 1021,4 hPa 0,0 l/m 0 min 0 min 176 W/m 6,4 km/h (2 Bft) 95,74 %
20.09.2021 16:04 17,8 C 17,8 C 15,0 C 61 % 1021,4 hPa 0,0 l/m 0 min 0 min 181 W/m 3,2 km/h (1 Bft) 95,74 %
20.09.2021 16:02 17,9 C 17,8 C 15,0 C 63 % 1021,4 hPa 0,0 l/m 0 min 0 min 188 W/m 9,7 km/h (2 Bft) 97,83 %
20.09.2021 16:00 17,9 C 18,3 C 15,0 C 63 % 1021,3 hPa 0,0 l/m 0 min 0 min 197 W/m 6,4 km/h (2 Bft) 97,87 %
20.09.2021 15:58 17,9 C 18,3 C 15,0 C 63 % 1021,3 hPa 0,0 l/m 0 min 0 min 211 W/m 6,4 km/h (2 Bft) 95,74 %
20.09.2021 15:56 18,0 C 18,3 C 15,6 C 63 % 1021,3 hPa 0,0 l/m 0 min 0 min 223 W/m 12,9 km/h (3 Bft) 97,87 %
20.09.2021 15:54 18,0 C 18,3 C 15,6 C 62 % 1021,3 hPa 0,0 l/m 0 min 0 min 236 W/m 6,4 km/h (2 Bft) 97,87 %
20.09.2021 15:52 18,1 C 18,3 C 15,6 C 63 % 1021,3 hPa 0,0 l/m 0 min 0 min 252 W/m 6,4 km/h (2 Bft) 95,74 %
20.09.2021 15:50 18,0 C 18,9 C 15,6 C 63 % 1021,2 hPa 0,0 l/m 0 min 0 min 252 W/m 12,9 km/h (3 Bft) 97,83 %
20.09.2021 15:48 18,1 C 18,9 C 15,6 C 62 % 1021,3 hPa 0,0 l/m 0 min 0 min 257 W/m 3,2 km/h (1 Bft) 97,87 %
20.09.2021 15:46 18,1 C 18,9 C 15,6 C 62 % 1021,3 hPa 0,0 l/m 2 min 0 min 260 W/m 3,2 km/h (1 Bft) 97,87 %
20.09.2021 15:44 18,2 C 18,9 C 15,6 C 62 % 1021,3 hPa 0,0 l/m 2 min 0 min 268 W/m 6,4 km/h (2 Bft) 97,87 %
20.09.2021 15:42 18,3 C 18,9 C 15,6 C 61 % 1021,3 hPa 0,0 l/m 2 min 0 min 291 W/m 12,9 km/h (3 Bft) 100,00 %
20.09.2021 15:40 18,3 C 18,9 C 15,6 C 61 % 1021,3 hPa 0,0 l/m 2 min 0 min 328 W/m 6,4 km/h (2 Bft) 95,74 %
20.09.2021 15:38 18,3 C 19,4 C 15,6 C 62 % 1021,3 hPa 0,0 l/m 2 min 0 min 371 W/m 9,7 km/h (2 Bft) 100,00 %
20.09.2021 15:36 18,2 C 19,4 C 15,6 C 62 % 1021,3 hPa 0,0 l/m 2 min 0 min 408 W/m 6,4 km/h (2 Bft) 100,00 %
20.09.2021 15:34 18,1 C 18,9 C 15,6 C 62 % 1021,3 hPa 0,0 l/m 2 min 0 min 551 W/m 9,7 km/h (2 Bft) 100,00 %
20.09.2021 15:32 18,1 C 18,9 C 15,6 C 62 % 1021,3 hPa 0,0 l/m 2 min 0 min 743 W/m 12,9 km/h (3 Bft) 100,00 %
20.09.2021 15:30 18,0 C 18,9 C 15,0 C 63 % 1021,4 hPa 0,0 l/m 2 min 0 min 711 W/m 9,7 km/h (2 Bft) 100,00 %
20.09.2021 15:28 17,9 C 19,4 C 15,0 C 64 % 1021,2 hPa 0,0 l/m 2 min 0 min 669 W/m 6,4 km/h (2 Bft) 100,00 %
20.09.2021 15:26 17,8 C 18,9 C 15,0 C 64 % 1021,3 hPa 0,0 l/m 2 min 0 min 642 W/m 6,4 km/h (2 Bft) 100,00 %
20.09.2021 15:24 17,6 C 18,9 C 15,0 C 63 % 1021,2 hPa 0,0 l/m 2 min 0 min 639 W/m 6,4 km/h (2 Bft) 100,00 %
20.09.2021 15:22 17,6 C 18,3 C 14,5 C 63 % 1021,2 hPa 0,0 l/m 2 min 0 min 464 W/m 6,4 km/h (2 Bft) 100,00 %
20.09.2021 15:20 17,7 C 18,3 C 14,5 C 63 % 1021,2 hPa 0,0 l/m 0 min 0 min 246 W/m 3,2 km/h (1 Bft) 100,00 %
20.09.2021 15:18 17,7 C 17,8 C 14,5 C 63 % 1021,2 hPa 0,0 l/m 0 min 0 min 177 W/m 9,7 km/h (2 Bft) 100,00 %
20.09.2021 15:16 17,8 C 17,8 C 14,5 C 62 % 1021,3 hPa 0,0 l/m 0 min 0 min 170 W/m 9,7 km/h (2 Bft) 100,00 %
20.09.2021 15:14 17,9 C 18,3 C 14,5 C 62 % 1021,3 hPa 0,0 l/m 0 min 0 min 174 W/m 9,7 km/h (2 Bft) 100,00 %
20.09.2021 15:12 17,8 C 18,3 C 15,0 C 62 % 1021,3 hPa 0,0 l/m 0 min 0 min 203 W/m 3,2 km/h (1 Bft) 100,00 %
20.09.2021 15:10 17,9 C 18,3 C 15,0 C 62 % 1021,2 hPa 0,0 l/m 0 min 0 min 193 W/m 9,7 km/h (2 Bft) 97,87 %
20.09.2021 15:08 17,8 C 18,9 C 15,0 C 62 % 1021,2 hPa 0,0 l/m 2 min 0 min 346 W/m 3,2 km/h (1 Bft) 100,00 %
20.09.2021 15:06 17,8 C 19,4 C 15,0 C 62 % 1021,2 hPa 0,0 l/m 2 min 0 min 507 W/m 3,2 km/h (1 Bft) 100,00 %
20.09.2021 15:04 17,7 C 20,0 C 15,6 C 63 % 1021,2 hPa 0,0 l/m 2 min 0 min 563 W/m 9,7 km/h (2 Bft) 97,87 %
20.09.2021 15:02 17,6 C 20,0 C 15,6 C 63 % 1021,1 hPa 0,0 l/m 2 min 0 min 617 W/m 12,9 km/h (3 Bft) 97,87 %
20.09.2021 15:00 17,5 C 20,0 C 15,6 C 64 % 1021,1 hPa 0,0 l/m 2 min 0 min 691 W/m 6,4 km/h (2 Bft) 100,00 %
20.09.2021 14:58 17,5 C 19,4 C 15,0 C 64 % 1021,1 hPa 0,0 l/m 2 min 0 min 532 W/m 6,4 km/h (2 Bft) 100,00 %
20.09.2021 14:56 17,4 C 18,9 C 15,0 C 64 % 1021,1 hPa 0,0 l/m 2 min 0 min 307 W/m 6,4 km/h (2 Bft) 100,00 %
20.09.2021 14:54 17,4 C 18,9 C 15,0 C 65 % 1021,1 hPa 0,0 l/m 2 min 0 min 348 W/m 9,7 km/h (2 Bft) 100,00 %
20.09.2021 14:52 17,4 C 19,4 C 15,0 C 65 % 1021,0 hPa 0,0 l/m 2 min 0 min 460 W/m 9,7 km/h (2 Bft) 100,00 %
20.09.2021 14:50 17,3 C 19,4 C 15,0 C 64 % 1021,0 hPa 0,0 l/m 2 min 0 min 447 W/m 9,7 km/h (2 Bft) 100,00 %
20.09.2021 14:48 17,2 C 18,9 C 15,0 C 65 % 1021,0 hPa 0,0 l/m 2 min 0 min 455 W/m 6,4 km/h (2 Bft) 100,00 %
20.09.2021 14:46 17,1 C 18,9 C 15,0 C 64 % 1021,0 hPa 0,0 l/m 2 min 0 min 328 W/m 6,4 km/h (2 Bft) 100,00 %
20.09.2021 14:44 17,1 C 18,9 C 15,0 C 64 % 1020,9 hPa 0,0 l/m 2 min 0 min 301 W/m 6,4 km/h (2 Bft) 100,00 %
20.09.2021 14:42 17,1 C 18,9 C 15,0 C 64 % 1021,0 hPa 0,0 l/m 0 min 0 min 284 W/m 6,4 km/h (2 Bft) 100,00 %
20.09.2021 14:40 17,0 C 18,3 C 15,0 C 65 % 1020,9 hPa 0,0 l/m 2 min 0 min 303 W/m 3,2 km/h (1 Bft) 100,00 %
20.09.2021 14:38 17,0 C 18,3 C 15,0 C 65 % 1020,9 hPa 0,0 l/m 0 min 0 min 297 W/m 3,2 km/h (1 Bft) 100,00 %
20.09.2021 14:36 17,0 C 17,8 C 14,5 C 64 % 1020,9 hPa 0,0 l/m 0 min 0 min 278 W/m 3,2 km/h (1 Bft) 97,83 %
20.09.2021 14:34 17,0 C 17,8 C 15,0 C 64 % 1020,9 hPa 0,0 l/m 0 min 0 min 254 W/m 6,4 km/h (2 Bft) 100,00 %
20.09.2021 14:32 17,0 C 17,8 C 15,0 C 64 % 1020,9 hPa 0,0 l/m 0 min 0 min 235 W/m 6,4 km/h (2 Bft) 100,00 %
20.09.2021 14:30 17,0 C 18,3 C 15,0 C 65 % 1020,9 hPa 0,0 l/m 0 min 0 min 238 W/m 6,4 km/h (2 Bft) 100,00 %
20.09.2021 14:28 17,0 C 18,3 C 15,0 C 66 % 1020,9 hPa 0,0 l/m 0 min 0 min 265 W/m 6,4 km/h (2 Bft) 97,87 %
20.09.2021 14:26 17,0 C 18,3 C 15,0 C 66 % 1020,9 hPa 0,0 l/m 0 min 0 min 284 W/m 6,4 km/h (2 Bft) 95,65 %
20.09.2021 14:24 17,0 C 18,3 C 15,0 C 66 % 1020,9 hPa 0,0 l/m 0 min 0 min 292 W/m 6,4 km/h (2 Bft) 97,87 %
20.09.2021 14:22 17,0 C 18,3 C 15,0 C 65 % 1020,9 hPa 0,0 l/m 2 min 0 min 307 W/m 6,4 km/h (2 Bft) 97,87 %
20.09.2021 14:20 17,1 C 18,3 C 15,0 C 65 % 1020,9 hPa 0,0 l/m 2 min 0 min 323 W/m 6,4 km/h (2 Bft) 97,87 %
20.09.2021 14:18 17,1 C 18,3 C 15,0 C 65 % 1020,9 hPa 0,0 l/m 2 min 0 min 329 W/m 9,7 km/h (2 Bft) 95,74 %
20.09.2021 14:16 17,2 C 18,3 C 15,0 C 67 % 1020,9 hPa 0,0 l/m 2 min 0 min 310 W/m 6,4 km/h (2 Bft) 95,74 %
20.09.2021 14:14 17,2 C 18,3 C 15,0 C 66 % 1020,8 hPa 0,0 l/m 0 min 0 min 299 W/m 6,4 km/h (2 Bft) 95,65 %
20.09.2021 14:12 17,2 C 18,3 C 15,0 C 66 % 1020,8 hPa 0,0 l/m 0 min 0 min 281 W/m 9,7 km/h (2 Bft) 95,74 %
20.09.2021 14:10 17,3 C 18,3 C 15,0 C 66 % 1020,8 hPa 0,0 l/m 0 min 0 min 272 W/m 12,9 km/h (3 Bft) 95,74 %
20.09.2021 14:08 17,4 C 18,9 C 15,0 C 66 % 1020,8 hPa 0,0 l/m 0 min 0 min 272 W/m 9,7 km/h (2 Bft) 91,43 %
20.09.2021 14:06 17,4 C 18,9 C 15,0 C 66 % 1020,8 hPa 0,0 l/m 0 min 0 min 293 W/m 9,7 km/h (2 Bft) 94,92 %
20.09.2021 14:04 17,4 C 19,4 C 15,0 C 66 % 1020,8 hPa 0,0 l/m 2 min 0 min 368 W/m 9,7 km/h (2 Bft) 95,74 %
20.09.2021 14:02 17,4 C 19,4 C 15,0 C 65 % 1020,8 hPa 0,0 l/m 2 min 0 min 420 W/m 9,7 km/h (2 Bft) 93,48 %
20.09.2021 14:00 17,4 C 20,0 C 15,6 C 65 % 1020,8 hPa 0,0 l/m 2 min 0 min 408 W/m 12,9 km/h (3 Bft) 93,62 %
20.09.2021 13:58 17,4 C 20,0 C 15,6 C 65 % 1020,8 hPa 0,0 l/m 2 min 0 min 464 W/m 9,7 km/h (2 Bft) 91,49 %
20.09.2021 13:56 17,4 C 20,0 C 15,6 C 66 % 1020,8 hPa 0,0 l/m 2 min 0 min 493 W/m 6,4 km/h (2 Bft) 93,62 %
20.09.2021 13:54 17,3 C 20,0 C 15,6 C 67 % 1020,8 hPa 0,0 l/m 2 min 0 min 473 W/m 9,7 km/h (2 Bft) 91,49 %
20.09.2021 13:52 17,3 C 19,4 C 15,6 C 67 % 1020,8 hPa 0,0 l/m 2 min 0 min 506 W/m 9,7 km/h (2 Bft) 89,36 %
20.09.2021 13:50 17,2 C 18,9 C 15,6 C 68 % 1020,8 hPa 0,0 l/m 2 min 0 min 446 W/m 9,7 km/h (2 Bft) 93,48 %
20.09.2021 13:48 17,1 C 18,9 C 15,6 C 69 % 1020,8 hPa 0,0 l/m 2 min 0 min 435 W/m 9,7 km/h (2 Bft) 91,49 %
20.09.2021 13:46 17,1 C 18,9 C 15,6 C 69 % 1020,8 hPa 0,0 l/m 2 min 0 min 415 W/m 16,1 km/h (3 Bft) 93,62 %
20.09.2021 13:44 17,0 C 18,9 C 15,6 C 68 % 1020,8 hPa 0,0 l/m 2 min 0 min 389 W/m 6,4 km/h (2 Bft) 93,62 %
20.09.2021 13:42 17,0 C 18,9 C 15,6 C 68 % 1020,8 hPa 0,0 l/m 2 min 0 min 372 W/m 6,4 km/h (2 Bft) 91,49 %
20.09.2021 13:40 17,0 C 18,9 C 15,6 C 69 % 1020,8 hPa 0,0 l/m 2 min 0 min 359 W/m 9,7 km/h (2 Bft) 93,62 %
20.09.2021 13:38 17,0 C 18,9 C 15,6 C 69 % 1020,8 hPa 0,0 l/m 2 min 0 min 360 W/m 9,7 km/h (2 Bft) 93,48 %
20.09.2021 13:36 16,9 C 18,9 C 15,6 C 69 % 1020,8 hPa 0,0 l/m 2 min 0 min 374 W/m 9,7 km/h (2 Bft) 95,74 %
20.09.2021 13:34 16,9 C 18,9 C 15,6 C 69 % 1020,8 hPa 0,0 l/m 2 min 0 min 407 W/m 6,4 km/h (2 Bft) 95,74 %
20.09.2021 13:32 16,9 C 18,9 C 15,0 C 69 % 1020,8 hPa 0,0 l/m 2 min 0 min 422 W/m 12,9 km/h (3 Bft) 97,87 %
20.09.2021 13:30 16,8 C 18,9 C 15,6 C 68 % 1020,8 hPa 0,0 l/m 2 min 0 min 449 W/m 9,7 km/h (2 Bft) 97,87 %
20.09.2021 13:28 16,8 C 18,9 C 15,6 C 68 % 1020,7 hPa 0,0 l/m 2 min 0 min 474 W/m 9,7 km/h (2 Bft) 97,87 %
20.09.2021 13:26 16,8 C 18,9 C 15,6 C 69 % 1020,8 hPa 0,0 l/m 2 min 0 min 448 W/m 9,7 km/h (2 Bft) 95,65 %
20.09.2021 13:24 16,6 C 18,3 C 15,6 C 68 % 1020,7 hPa 0,0 l/m 2 min 0 min 482 W/m 12,9 km/h (3 Bft) 100,00 %
20.09.2021 13:22 16,6 C 18,3 C 15,0 C 69 % 1020,7 hPa 0,0 l/m 2 min 0 min 427 W/m 12,9 km/h (3 Bft) 100,00 %
20.09.2021 13:20 16,6 C 18,3 C 15,0 C 68 % 1020,7 hPa 0,0 l/m 2 min 0 min 405 W/m 9,7 km/h (2 Bft) 100,00 %
20.09.2021 13:18 16,5 C 18,3 C 15,0 C 69 % 1020,7 hPa 0,0 l/m 2 min 0 min 392 W/m 9,7 km/h (2 Bft) 97,87 %
20.09.2021 13:16 16,5 C 18,3 C 15,0 C 69 % 1020,7 hPa 0,0 l/m 2 min 0 min 392 W/m 12,9 km/h (3 Bft) 97,87 %
20.09.2021 13:14 16,5 C 18,3 C 15,0 C 71 % 1020,7 hPa 0,0 l/m 2 min 0 min 386 W/m 9,7 km/h (2 Bft) 100,00 %
20.09.2021 13:12 16,5 C 18,3 C 15,0 C 72 % 1020,8 hPa 0,0 l/m 2 min 0 min 382 W/m 12,9 km/h (3 Bft) 100,00 %
20.09.2021 13:10 16,4 C 18,3 C 15,0 C 72 % 1020,7 hPa 0,0 l/m 2 min 0 min 380 W/m 12,9 km/h (3 Bft) 97,14 %
20.09.2021 13:08 16,4 C 17,8 C 15,0 C 72 % 1020,7 hPa 0,0 l/m 2 min 0 min 382 W/m 6,4 km/h (2 Bft) 100,00 %
20.09.2021 13:06 16,3 C 17,8 C 15,0 C 72 % 1020,7 hPa 0,0 l/m 2 min 0 min 380 W/m 9,7 km/h (2 Bft) 97,87 %
20.09.2021 13:04 16,3 C 17,8 C 15,0 C 72 % 1020,7 hPa 0,0 l/m 2 min 0 min 374 W/m 12,9 km/h (3 Bft) 100,00 %
20.09.2021 13:02 16,3 C 17,8 C 15,0 C 72 % 1020,7 hPa 0,0 l/m 2 min 0 min 373 W/m 9,7 km/h (2 Bft) 100,00 %
20.09.2021 13:00 16,3 C 17,8 C 15,0 C 72 % 1020,7 hPa 0,0 l/m 2 min 0 min 386 W/m 9,7 km/h (2 Bft) 100,00 %
20.09.2021 12:58 16,3 C 17,8 C 14,5 C 72 % 1020,8 hPa 0,0 l/m 2 min 0 min 359 W/m 12,9 km/h (3 Bft) 100,00 %
20.09.2021 12:56 16,3 C 17,2 C 14,5 C 72 % 1020,7 hPa 0,0 l/m 2 min 0 min 353 W/m 12,9 km/h (3 Bft) 97,87 %
20.09.2021 12:54 16,3 C 17,2 C 15,0 C 72 % 1020,7 hPa 0,0 l/m 2 min 0 min 352 W/m 12,9 km/h (3 Bft) 100,00 %
20.09.2021 12:52 16,3 C 17,8 C 15,0 C 73 % 1020,7 hPa 0,0 l/m 2 min 0 min 353 W/m 12,9 km/h (3 Bft) 97,87 %
20.09.2021 12:50 16,2 C 17,8 C 14,5 C 73 % 1020,7 hPa 0,0 l/m 2 min 0 min 352 W/m 16,1 km/h (3 Bft) 100,00 %
20.09.2021 12:48 16,1 C 17,2 C 14,5 C 72 % 1020,7 hPa 0,0 l/m 2 min 0 min 355 W/m 9,7 km/h (2 Bft) 100,00 %
20.09.2021 12:46 16,1 C 17,2 C 15,0 C 73 % 1020,7 hPa 0,0 l/m 2 min 0 min 359 W/m 12,9 km/h (3 Bft) 100,00 %
20.09.2021 12:44 16,2 C 17,8 C 15,0 C 74 % 1020,7 hPa 0,0 l/m 2 min 0 min 346 W/m 16,1 km/h (3 Bft) 100,00 %
20.09.2021 12:42 16,1 C 17,8 C 15,0 C 74 % 1020,7 hPa 0,0 l/m 2 min 0 min 347 W/m 9,7 km/h (2 Bft) 100,00 %
20.09.2021 12:40 16,0 C 17,8 C 15,0 C 74 % 1020,7 hPa 0,0 l/m 2 min 0 min 345 W/m 6,4 km/h (2 Bft) 100,00 %
20.09.2021 12:38 16,0 C 17,2 C 14,5 C 74 % 1020,7 hPa 0,0 l/m 2 min 0 min 356 W/m 9,7 km/h (2 Bft) 100,00 %
20.09.2021 12:36 16,0 C 17,8 C 14,5 C 74 % 1020,7 hPa 0,0 l/m 2 min 0 min 347 W/m 16,1 km/h (3 Bft) 100,00 %
20.09.2021 12:34 16,0 C 17,8 C 14,5 C 75 % 1020,7 hPa 0,0 l/m 2 min 0 min 365 W/m 9,7 km/h (2 Bft) 100,00 %
20.09.2021 12:32 15,9 C 17,8 C 14,5 C 74 % 1020,7 hPa 0,0 l/m 2 min 0 min 434 W/m 12,9 km/h (3 Bft) 97,87 %
20.09.2021 12:30 15,9 C 17,8 C 14,5 C 74 % 1020,7 hPa 0,0 l/m 2 min 0 min 388 W/m 12,9 km/h (3 Bft) 100,00 %
20.09.2021 12:28 15,9 C 17,2 C 14,5 C 74 % 1020,7 hPa 0,0 l/m 2 min 0 min 383 W/m 6,4 km/h (2 Bft) 100,00 %
20.09.2021 12:26 15,9 C 17,2 C 14,5 C 74 % 1020,7 hPa 0,0 l/m 2 min 0 min 373 W/m 12,9 km/h (3 Bft) 100,00 %
20.09.2021 12:24 15,9 C 17,2 C 14,5 C 74 % 1020,7 hPa 0,0 l/m 2 min 0 min 381 W/m 9,7 km/h (2 Bft) 100,00 %
20.09.2021 12:22 15,9 C 17,2 C 14,5 C 74 % 1020,6 hPa 0,0 l/m 2 min 0 min 398 W/m 12,9 km/h (3 Bft) 100,00 %
20.09.2021 12:20 16,0 C 17,8 C 15,0 C 75 % 1020,7 hPa 0,0 l/m 2 min 0 min 371 W/m 16,1 km/h (3 Bft) 100,00 %
20.09.2021 12:18 16,0 C 17,8 C 15,0 C 75 % 1020,7 hPa 0,0 l/m 2 min 0 min 375 W/m 9,7 km/h (2 Bft) 100,00 %
20.09.2021 12:16 15,9 C 17,8 C 15,0 C 75 % 1020,6 hPa 0,0 l/m 2 min 0 min 372 W/m 12,9 km/h (3 Bft) 97,83 %
20.09.2021 12:14 15,9 C 17,8 C 15,0 C 75 % 1020,6 hPa 0,0 l/m 2 min 0 min 371 W/m 9,7 km/h (2 Bft) 97,87 %
20.09.2021 12:12 15,9 C 17,8 C 15,0 C 75 % 1020,6 hPa 0,0 l/m 2 min 0 min 377 W/m 6,4 km/h (2 Bft) 100,00 %
20.09.2021 12:10 15,8 C 17,8 C 15,6 C 76 % 1020,6 hPa 0,0 l/m 2 min 0 min 429 W/m 6,4 km/h (2 Bft) 100,00 %
20.09.2021 12:08 15,8 C 17,8 C 15,6 C 76 % 1020,7 hPa 0,0 l/m 4 min 0 min 427 W/m 9,7 km/h (2 Bft) 100,00 %
20.09.2021 12:04 15,7 C 17,2 C 15,0 C 76 % 1020,6 hPa 0,0 l/m 2 min 0 min 395 W/m 9,7 km/h (2 Bft) 100,00 %
20.09.2021 12:02 15,7 C 17,8 C 15,6 C 76 % 1020,6 hPa 0,0 l/m 2 min 0 min 372 W/m 6,4 km/h (2 Bft) 96,55 %
20.09.2021 12:00 15,6 C 17,8 C 15,6 C 76 % 1020,6 hPa 0,0 l/m 2 min 0 min 387 W/m 12,9 km/h (3 Bft) 100,00 %
20.09.2021 11:58 15,5 C 17,8 C 15,6 C 76 % 1020,6 hPa 0,0 l/m 2 min 0 min 358 W/m 9,7 km/h (2 Bft) 97,87 %
20.09.2021 11:56 15,5 C 17,8 C 15,6 C 76 % 1020,5 hPa 0,0 l/m 2 min 0 min 319 W/m 6,4 km/h (2 Bft) 100,00 %
20.09.2021 11:54 15,5 C 17,8 C 15,6 C 76 % 1020,5 hPa 0,0 l/m 2 min 0 min 413 W/m 6,4 km/h (2 Bft) 97,14 %
20.09.2021 11:52 15,5 C 17,8 C 15,6 C 77 % 1020,6 hPa 0,0 l/m 2 min 0 min 456 W/m 9,7 km/h (2 Bft) 96,55 %
20.09.2021 11:50 15,4 C 17,2 C 15,6 C 77 % 1020,6 hPa 0,0 l/m 2 min 0 min 405 W/m 9,7 km/h (2 Bft) 97,87 %
20.09.2021 11:48 15,3 C 17,2 C 15,6 C 77 % 1020,5 hPa 0,0 l/m 2 min 0 min 445 W/m 12,9 km/h (3 Bft) 95,74 %
20.09.2021 11:46 15,3 C 17,2 C 15,6 C 77 % 1020,5 hPa 0,0 l/m 2 min 0 min 415 W/m 16,1 km/h (3 Bft) 93,62 %
20.09.2021 11:44 15,3 C 17,2 C 15,6 C 77 % 1020,5 hPa 0,0 l/m 2 min 0 min 370 W/m 12,9 km/h (3 Bft) 95,74 %
20.09.2021 11:42 15,2 C 17,2 C 15,6 C 77 % 1020,5 hPa 0,0 l/m 2 min 0 min 372 W/m 12,9 km/h (3 Bft) 95,74 %
20.09.2021 11:40 15,1 C 17,2 C 15,6 C 77 % 1020,5 hPa 0,0 l/m 2 min 0 min 454 W/m 9,7 km/h (2 Bft) 94,29 %
20.09.2021 11:38 15,1 C 17,2 C 15,0 C 78 % 1020,4 hPa 0,0 l/m 2 min 0 min 511 W/m 12,9 km/h (3 Bft) 95,74 %
20.09.2021 11:36 15,0 C 17,2 C 15,0 C 78 % 1020,4 hPa 0,0 l/m 2 min 0 min 380 W/m 12,9 km/h (3 Bft) 96,55 %
20.09.2021 11:34 15,0 C 16,7 C 14,5 C 78 % 1020,4 hPa 0,0 l/m 2 min 0 min 393 W/m 6,4 km/h (2 Bft) 93,62 %
20.09.2021 11:32 14,9 C 16,7 C 14,5 C 78 % 1020,4 hPa 0,0 l/m 2 min 0 min 328 W/m 16,1 km/h (3 Bft) 93,62 %
20.09.2021 11:30 14,9 C 16,7 C 13,9 C 78 % 1020,4 hPa 0,0 l/m 2 min 0 min 333 W/m 12,9 km/h (3 Bft) 100,00 %
20.09.2021 11:28 14,9 C 16,7 C 13,9 C 79 % 1020,4 hPa 0,0 l/m 2 min 0 min 310 W/m 12,9 km/h (3 Bft) 91,38 %
20.09.2021 11:26 14,9 C 17,2 C 13,9 C 80 % 1020,4 hPa 0,0 l/m 2 min 0 min 304 W/m 9,7 km/h (2 Bft) 95,74 %
20.09.2021 11:24 14,8 C 16,7 C 13,9 C 80 % 1020,3 hPa 0,0 l/m 2 min 0 min 275 W/m 6,4 km/h (2 Bft) 97,14 %
20.09.2021 11:22 14,8 C 16,7 C 13,9 C 80 % 1020,3 hPa 0,0 l/m 0 min 0 min 263 W/m 9,7 km/h (2 Bft) 94,92 %
20.09.2021 11:20 14,7 C 16,7 C 13,9 C 80 % 1020,3 hPa 0,0 l/m 2 min 0 min 271 W/m 6,4 km/h (2 Bft) 94,29 %
20.09.2021 11:18 14,6 C 16,1 C 13,4 C 80 % 1020,3 hPa 0,0 l/m 0 min 0 min 261 W/m 9,7 km/h (2 Bft) 96,61 %
20.09.2021 11:16 14,6 C 16,1 C 13,4 C 80 % 1020,3 hPa 0,0 l/m 2 min 0 min 267 W/m 16,1 km/h (3 Bft) 91,30 %
20.09.2021 11:14 14,5 C 16,1 C 13,4 C 80 % 1020,3 hPa 0,0 l/m 2 min 0 min 296 W/m 9,7 km/h (2 Bft) 97,14 %
20.09.2021 11:12 14,5 C 16,1 C 13,4 C 81 % 1020,3 hPa 0,0 l/m 2 min 0 min 461 W/m 12,9 km/h (3 Bft) 97,87 %
20.09.2021 11:10 14,4 C 16,1 C 13,4 C 81 % 1020,2 hPa 0,0 l/m 2 min 0 min 452 W/m 9,7 km/h (2 Bft) 95,74 %
20.09.2021 11:08 14,3 C 16,1 C 13,4 C 81 % 1020,2 hPa 0,0 l/m 2 min 0 min 409 W/m 6,4 km/h (2 Bft) 97,87 %
20.09.2021 11:06 14,2 C 15,6 C 13,4 C 81 % 1020,2 hPa 0,0 l/m 2 min 0 min 286 W/m 6,4 km/h (2 Bft) 95,74 %
20.09.2021 11:04 14,2 C 15,6 C 13,4 C 82 % 1020,2 hPa 0,0 l/m 2 min 0 min 283 W/m 12,9 km/h (3 Bft) 97,87 %
20.09.2021 11:02 14,2 C 15,6 C 13,4 C 82 % 1020,2 hPa 0,0 l/m 2 min 0 min 258 W/m 9,7 km/h (2 Bft) 100,00 %
20.09.2021 11:00 14,1 C 15,6 C 12,8 C 82 % 1020,1 hPa 0,0 l/m 2 min 0 min 268 W/m 9,7 km/h (2 Bft) 100,00 %
20.09.2021 10:58 14,0 C 15,0 C 12,8 C 82 % 1020,1 hPa 0,0 l/m 2 min 0 min 262 W/m 9,7 km/h (2 Bft) 100,00 %
20.09.2021 10:56 14,0 C 15,6 C 12,8 C 82 % 1020,1 hPa 0,0 l/m 2 min 0 min 262 W/m 9,7 km/h (2 Bft) 100,00 %
20.09.2021 10:54 13,9 C 15,0 C 12,8 C 82 % 1020,1 hPa 0,0 l/m 2 min 0 min 255 W/m 9,7 km/h (2 Bft) 100,00 %
20.09.2021 10:52 13,9 C 15,0 C 12,8 C 83 % 1020,1 hPa 0,0 l/m 2 min 0 min 251 W/m 12,9 km/h (3 Bft) 98,28 %
20.09.2021 10:50 13,8 C 15,0 C 12,8 C 83 % 1020,0 hPa 0,0 l/m 2 min 0 min 255 W/m 9,7 km/h (2 Bft) 97,22 %
20.09.2021 10:48 13,8 C 15,0 C 12,8 C 83 % 1020,0 hPa 0,0 l/m 0 min 0 min 225 W/m 6,4 km/h (2 Bft) 97,83 %
20.09.2021 10:46 13,6 C 14,4 C 12,8 C 83 % 1020,0 hPa 0,0 l/m 0 min 0 min 223 W/m 6,4 km/h (2 Bft) 98,31 %
20.09.2021 10:44 13,6 C 14,4 C 12,3 C 84 % 1020,0 hPa 0,0 l/m 0 min 0 min 220 W/m 9,7 km/h (2 Bft) 97,14 %
20.09.2021 10:42 13,6 C 14,4 C 12,3 C 84 % 1020,0 hPa 0,0 l/m 0 min 0 min 184 W/m 6,4 km/h (2 Bft) 96,61 %
20.09.2021 10:40 13,5 C 14,4 C 12,3 C 84 % 1019,9 hPa 0,0 l/m 0 min 0 min 164 W/m 16,1 km/h (3 Bft) 100,00 %
20.09.2021 10:38 13,5 C 14,4 C 12,3 C 85 % 1020,0 hPa 0,0 l/m 0 min 0 min 165 W/m 9,7 km/h (2 Bft) 97,83 %
20.09.2021 10:36 13,4 C 14,4 C 12,3 C 86 % 1019,9 hPa 0,0 l/m 0 min 0 min 174 W/m 9,7 km/h (2 Bft) 97,87 %
20.09.2021 10:34 13,3 C 14,4 C 12,3 C 86 % 1019,9 hPa 0,0 l/m 0 min 0 min 176 W/m 12,9 km/h (3 Bft) 95,74 %
20.09.2021 10:32 13,2 C 14,4 C 12,3 C 86 % 1019,9 hPa 0,0 l/m 0 min 0 min 185 W/m 12,9 km/h (3 Bft) 97,87 %
20.09.2021 10:30 13,1 C 14,4 C 12,3 C 87 % 1019,9 hPa 0,0 l/m 0 min 0 min 198 W/m 9,7 km/h (2 Bft) 97,87 %
20.09.2021 10:28 13,0 C 14,4 C 12,3 C 87 % 1019,9 hPa 0,0 l/m 0 min 0 min 182 W/m 12,9 km/h (3 Bft) 97,87 %
20.09.2021 10:26 13,0 C 14,4 C 12,3 C 87 % 1019,9 hPa 0,0 l/m 0 min 0 min 173 W/m 6,4 km/h (2 Bft) 95,74 %
20.09.2021 10:24 12,9 C 14,4 C 12,3 C 88 % 1019,9 hPa 0,0 l/m 0 min 0 min 162 W/m 6,4 km/h (2 Bft) 95,65 %
20.09.2021 10:22 12,9 C 13,9 C 11,7 C 88 % 1019,8 hPa 0,0 l/m 0 min 0 min 150 W/m 9,7 km/h (2 Bft) 97,87 %
20.09.2021 10:20 12,8 C 13,9 C 11,7 C 88 % 1019,8 hPa 0,0 l/m 0 min 0 min 145 W/m 6,4 km/h (2 Bft) 97,87 %
20.09.2021 10:18 12,7 C 13,9 C 11,7 C 88 % 1019,8 hPa 0,0 l/m 0 min 0 min 153 W/m 6,4 km/h (2 Bft) 98,31 %
20.09.2021 10:16 12,6 C 13,9 C 11,7 C 89 % 1019,8 hPa 0,0 l/m 0 min 0 min 144 W/m 9,7 km/h (2 Bft) 97,14 %
20.09.2021 10:14 12,6 C 13,9 C 11,7 C 89 % 1019,7 hPa 0,0 l/m 0 min 0 min 190 W/m 6,4 km/h (2 Bft) 97,87 %
20.09.2021 10:12 12,5 C 13,9 C 11,7 C 89 % 1019,7 hPa 0,0 l/m 0 min 0 min 202 W/m 9,7 km/h (2 Bft) 97,83 %
20.09.2021 10:10 12,4 C 13,9 C 11,7 C 90 % 1019,7 hPa 0,0 l/m 0 min 0 min 152 W/m 9,7 km/h (2 Bft) 97,87 %
20.09.2021 10:08 12,4 C 13,9 C 11,7 C 90 % 1019,7 hPa 0,0 l/m 2 min 0 min 225 W/m 9,7 km/h (2 Bft) 97,87 %
20.09.2021 10:06 12,3 C 13,9 C 11,7 C 90 % 1019,7 hPa 0,0 l/m 2 min 0 min 262 W/m 6,4 km/h (2 Bft) 97,87 %
20.09.2021 10:04 12,2 C 13,9 C 11,7 C 91 % 1019,7 hPa 0,0 l/m 2 min 0 min 222 W/m 6,4 km/h (2 Bft) 97,87 %
20.09.2021 10:02 12,1 C 13,9 C 11,1 C 91 % 1019,7 hPa 0,0 l/m 0 min 0 min 156 W/m 9,7 km/h (2 Bft) 97,83 %
20.09.2021 10:00 12,0 C 13,9 C 11,1 C 91 % 1019,7 hPa 0,0 l/m 0 min 0 min 150 W/m 6,4 km/h (2 Bft) 97,87 %
20.09.2021 09:58 12,0 C 12,8 C 11,1 C 92 % 1019,6 hPa 0,0 l/m 0 min 0 min 136 W/m 6,4 km/h (2 Bft) 100,00 %
20.09.2021 09:56 11,9 C 12,8 C 11,1 C 92 % 1019,6 hPa 0,0 l/m 0 min 0 min 126 W/m 6,4 km/h (2 Bft) 100,00 %
20.09.2021 09:54 11,9 C 12,8 C 11,1 C 92 % 1019,6 hPa 0,0 l/m 0 min 0 min 152 W/m 9,7 km/h (2 Bft) 100,00 %
20.09.2021 09:52 11,8 C 12,8 C 11,1 C 92 % 1019,6 hPa 0,0 l/m 0 min 0 min 127 W/m 6,4 km/h (2 Bft) 97,87 %
20.09.2021 09:50 11,8 C 12,8 C 11,1 C 93 % 1019,7 hPa 0,0 l/m 0 min 0 min 123 W/m 9,7 km/h (2 Bft) 100,00 %
20.09.2021 09:48 11,7 C 12,8 C 11,1 C 93 % 1019,6 hPa 0,0 l/m 0 min 0 min 128 W/m 3,2 km/h (1 Bft) 97,87 %
20.09.2021 09:46 11,6 C 12,8 C 11,1 C 93 % 1019,6 hPa 0,0 l/m 0 min 0 min 116 W/m 6,4 km/h (2 Bft) 97,87 %
20.09.2021 09:44 11,6 C 12,2 C 11,1 C 93 % 1019,5 hPa 0,0 l/m 0 min 0 min 110 W/m 9,7 km/h (2 Bft) 97,87 %
20.09.2021 09:42 11,6 C 12,8 C 11,1 C 94 % 1019,6 hPa 0,0 l/m 0 min 0 min 112 W/m 6,4 km/h (2 Bft) 96,55 %
20.09.2021 09:40 11,5 C 12,8 C 11,1 C 94 % 1019,5 hPa 0,0 l/m 0 min 0 min 117 W/m 6,4 km/h (2 Bft) 97,22 %
20.09.2021 09:38 11,5 C 12,8 C 11,1 C 94 % 1019,5 hPa 0,0 l/m 0 min 0 min 123 W/m 6,4 km/h (2 Bft) 97,83 %
20.09.2021 09:36 11,4 C 12,8 C 11,1 C 94 % 1019,5 hPa 0,0 l/m 0 min 0 min 126 W/m 3,2 km/h (1 Bft) 98,31 %
20.09.2021 09:34 11,4 C 12,2 C 10,6 C 94 % 1019,6 hPa 0,0 l/m 0 min 0 min 131 W/m 3,2 km/h (1 Bft) 97,87 %
20.09.2021 09:32 11,3 C 12,2 C 10,6 C 94 % 1019,5 hPa 0,0 l/m 0 min 0 min 134 W/m 9,7 km/h (2 Bft) 95,74 %
20.09.2021 09:30 11,3 C 12,2 C 10,6 C 94 % 1019,5 hPa 0,0 l/m 0 min 0 min 124 W/m 9,7 km/h (2 Bft) 95,65 %
20.09.2021 09:28 11,2 C 12,2 C 10,6 C 95 % 1019,5 hPa 0,0 l/m 0 min 0 min 119 W/m 6,4 km/h (2 Bft) 97,87 %
20.09.2021 09:26 11,1 C 12,2 C 10,6 C 95 % 1019,5 hPa 0,0 l/m 0 min 0 min 121 W/m 6,4 km/h (2 Bft) 97,87 %
20.09.2021 09:24 11,1 C 12,2 C 10,6 C 95 % 1019,5 hPa 0,0 l/m 0 min 0 min 124 W/m 9,7 km/h (2 Bft) 97,87 %
20.09.2021 09:22 11,0 C 12,2 C 10,6 C 95 % 1019,5 hPa 0,0 l/m 0 min 0 min 125 W/m 3,2 km/h (1 Bft) 91,43 %
20.09.2021 09:20 10,9 C 12,2 C 10,6 C 95 % 1019,4 hPa 0,0 l/m 0 min 0 min 127 W/m 6,4 km/h (2 Bft) 97,87 %
20.09.2021 09:18 10,9 C 12,2 C 10,6 C 95 % 1019,4 hPa 0,0 l/m 0 min 0 min 124 W/m 6,4 km/h (2 Bft) 97,87 %
20.09.2021 09:16 10,8 C 11,7 C 10,6 C 95 % 1019,4 hPa 0,0 l/m 0 min 0 min 122 W/m 6,4 km/h (2 Bft) 97,87 %
20.09.2021 09:14 10,8 C 11,7 C 10,6 C 96 % 1019,4 hPa 0,0 l/m 0 min 0 min 122 W/m 6,4 km/h (2 Bft) 96,55 %
20.09.2021 09:12 10,7 C 11,7 C 10,6 C 95 % 1019,4 hPa 0,0 l/m 0 min 0 min 119 W/m 3,2 km/h (1 Bft) 100,00 %
20.09.2021 09:10 10,6 C 11,7 C 10,6 C 95 % 1019,4 hPa 0,0 l/m 0 min 0 min 112 W/m 6,4 km/h (2 Bft) 100,00 %
20.09.2021 09:08 10,6 C 11,7 C 10,6 C 96 % 1019,3 hPa 0,0 l/m 0 min 0 min 112 W/m 3,2 km/h (1 Bft) 100,00 %
20.09.2021 09:06 10,5 C 11,7 C 10,0 C 96 % 1019,3 hPa 0,0 l/m 0 min 0 min 113 W/m 3,2 km/h (1 Bft) 100,00 %
20.09.2021 09:04 10,4 C 11,7 C 10,0 C 96 % 1019,3 hPa 0,0 l/m 0 min 0 min 108 W/m 3,2 km/h (1 Bft) 96,55 %
20.09.2021 09:02 10,4 C 11,1 C 10,0 C 95 % 1019,3 hPa 0,0 l/m 0 min 0 min 105 W/m 3,2 km/h (1 Bft) 97,14 %
20.09.2021 09:00 10,3 C 11,1 C 10,0 C 95 % 1019,3 hPa 0,0 l/m 0 min 0 min 104 W/m 3,2 km/h (1 Bft) 95,74 %
20.09.2021 08:58 10,1 C 11,1 C 10,0 C 96 % 1019,3 hPa 0,0 l/m 0 min 0 min 100 W/m 3,2 km/h (1 Bft) 95,74 %
20.09.2021 08:56 10,0 C 11,1 C 10,0 C 95 % 1019,3 hPa 0,0 l/m 0 min 0 min 98 W/m 6,4 km/h (2 Bft) 97,87 %
20.09.2021 08:54 9,9 C 11,1 C 9,5 C 95 % 1019,3 hPa 0,0 l/m 0 min 0 min 97 W/m 3,2 km/h (1 Bft) 97,87 %
20.09.2021 08:52 9,8 C 10,6 C 9,5 C 95 % 1019,3 hPa 0,0 l/m 0 min 0 min 93 W/m 3,2 km/h (1 Bft) 95,74 %
20.09.2021 08:50 9,7 C 10,6 C 9,5 C 95 % 1019,3 hPa 0,0 l/m 0 min 0 min 89 W/m 3,2 km/h (1 Bft) 97,83 %
20.09.2021 08:48 9,6 C 10,6 C 9,5 C 95 % 1019,2 hPa 0,0 l/m 0 min 0 min 84 W/m 3,2 km/h (1 Bft) 97,87 %
20.09.2021 08:46 9,5 C 10,0 C 9,5 C 95 % 1019,2 hPa 0,0 l/m 0 min 0 min 81 W/m 0,0 km/h (0 Bft) 97,87 %
20.09.2021 08:44 9,4 C 10,0 C 9,5 C 95 % 1019,3 hPa 0,0 l/m 0 min 0 min 77 W/m 0,0 km/h (0 Bft) 97,87 %
20.09.2021 08:42 9,4 C 10,0 C 8,9 C 95 % 1019,2 hPa 0,0 l/m 0 min 0 min 77 W/m 3,2 km/h (1 Bft) 95,74 %
20.09.2021 08:40 9,4 C 10,0 C 8,9 C 95 % 1019,2 hPa 0,0 l/m 0 min 0 min 74 W/m 0,0 km/h (0 Bft) 97,83 %
20.09.2021 08:38 9,3 C 10,0 C 8,9 C 95 % 1019,2 hPa 0,0 l/m 0 min 0 min 71 W/m 0,0 km/h (0 Bft) 97,87 %
20.09.2021 08:36 9,3 C 9,4 C 8,9 C 95 % 1019,1 hPa 0,0 l/m 0 min 0 min 67 W/m 0,0 km/h (0 Bft) 97,87 %
20.09.2021 08:34 9,2 C 9,4 C 8,9 C 95 % 1019,1 hPa 0,0 l/m 0 min 0 min 63 W/m 3,2 km/h (1 Bft) 93,62 %
20.09.2021 08:32 9,1 C 9,4 C 8,4 C 95 % 1019,1 hPa 0,0 l/m 0 min 0 min 56 W/m 6,4 km/h (2 Bft) 95,74 %
20.09.2021 08:30 9,1 C 9,4 C 8,4 C 95 % 1019,2 hPa 0,0 l/m 0 min 0 min 50 W/m 3,2 km/h (1 Bft) 97,87 %
20.09.2021 08:28 9,1 C 9,4 C 8,4 C 95 % 1019,1 hPa 0,0 l/m 0 min 0 min 46 W/m 3,2 km/h (1 Bft) 97,87 %
20.09.2021 08:26 9,0 C 8,9 C 8,4 C 95 % 1019,1 hPa 0,0 l/m 0 min 0 min 41 W/m 3,2 km/h (1 Bft) 97,83 %
20.09.2021 08:24 9,0 C 8,9 C 8,4 C 95 % 1019,1 hPa 0,0 l/m 0 min 0 min 39 W/m 3,2 km/h (1 Bft) 97,87 %
20.09.2021 08:22 9,0 C 8,9 C 8,4 C 95 % 1019,1 hPa 0,0 l/m 0 min 0 min 39 W/m 0,0 km/h (0 Bft) 96,00 %
20.09.2021 08:20 8,9 C 8,9 C 8,4 C 95 % 1019,1 hPa 0,0 l/m 0 min 0 min 39 W/m 3,2 km/h (1 Bft) 97,87 %
20.09.2021 08:18 8,9 C 8,9 C 8,4 C 95 % 1019,1 hPa 0,0 l/m 0 min 0 min 37 W/m 3,2 km/h (1 Bft) 97,44 %
20.09.2021 08:16 8,8 C 8,9 C 8,4 C 95 % 1019,0 hPa 0,0 l/m 0 min 0 min 35 W/m 3,2 km/h (1 Bft) 32,26 %
20.09.2021 08:14 8,9 C 8,9 C 8,4 C 95 % 1019,0 hPa 0,0 l/m 0 min 0 min 35 W/m 3,2 km/h (1 Bft) 97,87 %
20.09.2021 08:12 8,8 C 8,9 C 7,8 C 94 % 1019,0 hPa 0,0 l/m 0 min 0 min 35 W/m 3,2 km/h (1 Bft) 100,00 %
20.09.2021 08:10 8,8 C 8,3 C 7,8 C 94 % 1019,0 hPa 0,0 l/m 0 min 0 min 33 W/m 6,4 km/h (2 Bft) 97,87 %
20.09.2021 08:08 8,8 C 8,3 C 7,8 C 94 % 1019,0 hPa 0,0 l/m 0 min 0 min 32 W/m 3,2 km/h (1 Bft) 97,87 %
20.09.2021 08:06 8,8 C 8,3 C 7,8 C 94 % 1018,9 hPa 0,0 l/m 0 min 0 min 32 W/m 3,2 km/h (1 Bft) 97,87 %
20.09.2021 08:04 8,8 C 8,3 C 7,8 C 94 % 1018,9 hPa 0,0 l/m 0 min 0 min 32 W/m 3,2 km/h (1 Bft) 95,65 %
20.09.2021 08:02 8,8 C 8,3 C 7,8 C 94 % 1018,9 hPa 0,0 l/m 0 min 0 min 30 W/m 3,2 km/h (1 Bft) 100,00 %
20.09.2021 08:00 8,8 C 8,3 C 7,8 C 94 % 1018,8 hPa 0,0 l/m 0 min 0 min 29 W/m 3,2 km/h (1 Bft) 97,87 %
20.09.2021 07:58 8,7 C 8,3 C 7,8 C 94 % 1018,9 hPa 0,0 l/m 0 min 0 min 28 W/m 3,2 km/h (1 Bft) 95,74 %
20.09.2021 07:56 8,7 C 8,3 C 7,8 C 94 % 1018,9 hPa 0,0 l/m 0 min 0 min 26 W/m 3,2 km/h (1 Bft) 93,62 %
20.09.2021 07:54 8,7 C 8,3 C 7,8 C 94 % 1018,9 hPa 0,0 l/m 0 min 0 min 26 W/m 3,2 km/h (1 Bft) 91,30 %
20.09.2021 07:53 8,7 C 8,3 C 7,8 C 94 % 1018,9 hPa 0,0 l/m 0 min 0 min 26 W/m 6,4 km/h (2 Bft) 95,71 %
20.09.2021 07:50 8,6 C 8,3 C 7,8 C 94 % 1018,8 hPa 0,0 l/m 0 min 0 min 25 W/m 3,2 km/h (1 Bft) 95,74 %
20.09.2021 07:48 8,6 C 8,3 C 7,8 C 94 % 1018,9 hPa 0,0 l/m 0 min 0 min 24 W/m 3,2 km/h (1 Bft) 93,62 %
20.09.2021 07:46 8,6 C 8,3 C 7,8 C 94 % 1018,9 hPa 0,0 l/m 0 min 0 min 23 W/m 3,2 km/h (1 Bft) 95,74 %
20.09.2021 07:44 8,6 C 8,3 C 7,8 C 94 % 1018,8 hPa 0,0 l/m 0 min 0 min 22 W/m 3,2 km/h (1 Bft) 93,62 %
20.09.2021 07:42 8,6 C 8,3 C 7,8 C 94 % 1018,8 hPa 0,0 l/m 0 min 0 min 21 W/m 3,2 km/h (1 Bft) 95,74 %
20.09.2021 07:40 8,6 C 8,3 C 7,8 C 94 % 1018,8 hPa 0,0 l/m 0 min 0 min 19 W/m 3,2 km/h (1 Bft) 95,65 %
20.09.2021 07:38 8,6 C 8,3 C 7,8 C 94 % 1018,9 hPa 0,0 l/m 0 min 0 min 19 W/m 3,2 km/h (1 Bft) 93,62 %
20.09.2021 07:36 8,6 C 8,3 C 7,8 C 94 % 1018,8 hPa 0,0 l/m 0 min 0 min 18 W/m 3,2 km/h (1 Bft) 95,74 %
20.09.2021 07:34 8,6 C 7,8 C 7,8 C 94 % 1018,9 hPa 0,0 l/m 0 min 0 min 16 W/m 6,4 km/h (2 Bft) 93,62 %
20.09.2021 07:32 8,6 C 7,8 C 7,8 C 94 % 1018,8 hPa 0,0 l/m 0 min 0 min 15 W/m 3,2 km/h (1 Bft) 95,74 %
20.09.2021 07:30 8,6 C 7,8 C 7,8 C 94 % 1018,8 hPa 0,0 l/m 0 min 0 min 13 W/m 3,2 km/h (1 Bft) 95,74 %
20.09.2021 07:28 8,6 C 7,8 C 7,3 C 94 % 1018,8 hPa 0,0 l/m 0 min 0 min 12 W/m 3,2 km/h (1 Bft) 100,00 %
20.09.2021 07:26 8,6 C 7,8 C 7,3 C 94 % 1018,8 hPa 0,0 l/m 0 min 0 min 11 W/m 3,2 km/h (1 Bft) 100,00 %
20.09.2021 07:24 8,6 C 7,8 C 7,8 C 94 % 1018,8 hPa 0,0 l/m 0 min 0 min 10 W/m 3,2 km/h (1 Bft) 97,87 %
20.09.2021 07:22 8,6 C 7,8 C 7,3 C 94 % 1018,8 hPa 0,0 l/m 0 min 0 min 8 W/m 3,2 km/h (1 Bft) 100,00 %
20.09.2021 07:20 8,6 C 7,8 C 7,3 C 94 % 1018,7 hPa 0,0 l/m 0 min 0 min 7 W/m 6,4 km/h (2 Bft) 100,00 %
20.09.2021 07:18 8,6 C 7,8 C 7,3 C 94 % 1018,8 hPa 0,0 l/m 0 min 0 min 7 W/m 3,2 km/h (1 Bft) 97,87 %
20.09.2021 07:16 8,6 C 7,8 C 7,8 C 94 % 1018,8 hPa 0,0 l/m 0 min 0 min 5 W/m 6,4 km/h (2 Bft) 97,83 %
20.09.2021 07:14 8,6 C 7,8 C 7,3 C 94 % 1018,7 hPa 0,0 l/m 0 min 0 min 5 W/m 3,2 km/h (1 Bft) 100,00 %
20.09.2021 07:12 8,6 C 7,8 C 7,3 C 94 % 1018,8 hPa 0,0 l/m 0 min 0 min 5 W/m 6,4 km/h (2 Bft) 97,87 %
20.09.2021 07:10 8,6 C 7,8 C 7,8 C 94 % 1018,8 hPa 0,0 l/m 0 min 0 min 0 W/m 3,2 km/h (1 Bft) 100,00 %
20.09.2021 07:08 8,6 C 7,8 C 7,8 C 94 % 1018,7 hPa 0,0 l/m 0 min 0 min 0 W/m 3,2 km/h (1 Bft) 100,00 %
20.09.2021 07:06 8,6 C 7,8 C 7,3 C 94 % 1018,7 hPa 0,0 l/m 0 min 0 min 0 W/m 3,2 km/h (1 Bft) 100,00 %
20.09.2021 07:04 8,6 C 7,8 C 7,3 C 94 % 1018,7 hPa 0,0 l/m 0 min 0 min 0 W/m 3,2 km/h (1 Bft) 100,00 %
20.09.2021 07:02 8,6 C 7,8 C 7,3 C 94 % 1018,7 hPa 0,0 l/m 0 min 0 min 0 W/m 3,2 km/h (1 Bft) 100,00 %
20.09.2021 07:00 8,6 C 7,8 C 7,3 C 94 % 1018,7 hPa 0,0 l/m 0 min 0 min 0 W/m 3,2 km/h (1 Bft) 100,00 %
20.09.2021 06:58 8,6 C 7,8 C 7,3 C 94 % 1018,7 hPa 0,0 l/m 0 min 0 min 0 W/m 3,2 km/h (1 Bft) 97,87 %
20.09.2021 06:56 8,6 C 7,8 C 7,3 C 94 % 1018,7 hPa 0,0 l/m 0 min 0 min 0 W/m 3,2 km/h (1 Bft) 100,00 %
20.09.2021 06:54 8,6 C 7,8 C 7,3 C 94 % 1018,6 hPa 0,0 l/m 0 min 0 min 0 W/m 3,2 km/h (1 Bft) 100,00 %
20.09.2021 06:52 8,6 C 7,8 C 7,3 C 94 % 1018,6 hPa 0,0 l/m 0 min 0 min 0 W/m 0,0 km/h (0 Bft) 97,87 %
20.09.2021 06:50 8,6 C 7,8 C 7,3 C 94 % 1018,6 hPa 0,0 l/m 0 min 0 min 0 W/m 0,0 km/h (0 Bft) 56,52 %
20.09.2021 06:48 8,7 C 7,8 C 7,3 C 94 % 1018,6 hPa 0,0 l/m 0 min 0 min 0 W/m 3,2 km/h (1 Bft) 100,00 %
20.09.2021 06:46 8,7 C 7,8 C 7,3 C 93 % 1018,6 hPa 0,0 l/m 0 min 0 min 0 W/m 3,2 km/h (1 Bft) 100,00 %
20.09.2021 06:44 8,7 C 7,8 C 7,8 C 94 % 1018,6 hPa 0,0 l/m 0 min 0 min 0 W/m 0,0 km/h (0 Bft) 100,00 %
20.09.2021 06:42 8,7 C 7,8 C 7,8 C 93 % 1018,5 hPa 0,0 l/m 0 min 0 min 0 W/m 3,2 km/h (1 Bft) 100,00 %
20.09.2021 06:40 8,7 C 7,8 C 7,8 C 93 % 1018,5 hPa 0,0 l/m 0 min 0 min 0 W/m 3,2 km/h (1 Bft) 100,00 %
20.09.2021 06:38 8,8 C 7,8 C 7,3 C 93 % 1018,4 hPa 0,0 l/m 0 min 0 min 0 W/m 0,0 km/h (0 Bft) 97,87 %
20.09.2021 06:36 8,8 C 7,8 C 7,3 C 93 % 1018,4 hPa 0,0 l/m 0 min 0 min 0 W/m 3,2 km/h (1 Bft) 100,00 %
20.09.2021 06:34 8,8 C 7,8 C 7,3 C 93 % 1018,4 hPa 0,0 l/m 0 min 0 min 0 W/m 3,2 km/h (1 Bft) 97,87 %
20.09.2021 06:32 8,8 C 7,8 C 7,3 C 93 % 1018,3 hPa 0,0 l/m 0 min 0 min 0 W/m 3,2 km/h (1 Bft) 97,87 %
20.09.2021 06:30 8,8 C 7,8 C 7,3 C 93 % 1018,4 hPa 0,0 l/m 0 min 0 min 0 W/m 3,2 km/h (1 Bft) 100,00 %
20.09.2021 06:28 8,8 C 7,8 C 7,3 C 93 % 1018,4 hPa 0,0 l/m 0 min 0 min 0 W/m 3,2 km/h (1 Bft) 100,00 %
20.09.2021 06:26 8,8 C 7,8 C 7,3 C 93 % 1018,3 hPa 0,0 l/m 0 min 0 min 0 W/m 3,2 km/h (1 Bft) 100,00 %
20.09.2021 06:24 8,8 C 8,3 C 7,8 C 93 % 1018,4 hPa 0,0 l/m 0 min 0 min 0 W/m 3,2 km/h (1 Bft) 100,00 %
20.09.2021 06:22 8,8 C 8,3 C 7,8 C 93 % 1018,4 hPa 0,0 l/m 0 min 0 min 0 W/m 0,0 km/h (0 Bft) 100,00 %
20.09.2021 06:20 8,9 C 8,3 C 7,8 C 93 % 1018,3 hPa 0,0 l/m 0 min 0 min 0 W/m 3,2 km/h (1 Bft) 100,00 %
20.09.2021 06:18 8,9 C 8,3 C 7,8 C 93 % 1018,4 hPa 0,0 l/m 0 min 0 min 0 W/m 3,2 km/h (1 Bft) 100,00 %
20.09.2021 06:16 8,9 C 7,8 C 7,8 C 93 % 1018,3 hPa 0,0 l/m 0 min 0 min 0 W/m 3,2 km/h (1 Bft) 93,62 %
20.09.2021 06:14 8,9 C 8,3 C 7,8 C 93 % 1018,4 hPa 0,0 l/m 0 min 0 min 0 W/m 0,0 km/h (0 Bft) 97,87 %
20.09.2021 06:12 8,9 C 8,3 C 7,8 C 93 % 1018,4 hPa 0,0 l/m 0 min 0 min 0 W/m 0,0 km/h (0 Bft) 97,87 %
20.09.2021 06:10 8,9 C 8,3 C 7,8 C 93 % 1018,3 hPa 0,0 l/m 0 min 0 min 0 W/m 3,2 km/h (1 Bft) 95,74 %
20.09.2021 06:08 8,9 C 8,3 C 7,8 C 93 % 1018,3 hPa 0,0 l/m 0 min 0 min 0 W/m 0,0 km/h (0 Bft) 97,85 %
20.09.2021 06:04 9,0 C 8,3 C 7,8 C 93 % 1018,4 hPa 0,0 l/m 0 min 0 min 0 W/m 0,0 km/h (0 Bft) 97,87 %
20.09.2021 06:02 9,0 C 8,3 C 7,8 C 93 % 1018,3 hPa 0,0 l/m 0 min 0 min 0 W/m 0,0 km/h (0 Bft) 97,87 %
20.09.2021 06:00 9,0 C 8,3 C 7,8 C 93 % 1018,3 hPa 0,0 l/m 0 min 0 min 0 W/m 0,0 km/h (0 Bft) 97,87 %
20.09.2021 05:58 9,0 C 8,3 C 7,8 C 93 % 1018,3 hPa 0,0 l/m 0 min 0 min 0 W/m 0,0 km/h (0 Bft) 97,87 %
20.09.2021 05:56 9,0 C 8,3 C 7,8 C 93 % 1018,3 hPa 0,0 l/m 0 min 0 min 0 W/m 0,0 km/h (0 Bft) 95,65 %
20.09.2021 05:54 9,0 C 8,3 C 7,8 C 93 % 1018,2 hPa 0,0 l/m 0 min 0 min 0 W/m 3,2 km/h (1 Bft) 97,87 %
20.09.2021 05:52 9,0 C 8,3 C 7,8 C 93 % 1018,3 hPa 0,0 l/m 0 min 0 min 0 W/m 0,0 km/h (0 Bft) 97,87 %
20.09.2021 05:50 9,0 C 8,3 C 7,8 C 93 % 1018,2 hPa 0,0 l/m 0 min 0 min 0 W/m 3,2 km/h (1 Bft) 97,87 %
20.09.2021 05:48 9,0 C 8,3 C 7,8 C 93 % 1018,2 hPa 0,0 l/m 0 min 0 min 0 W/m 3,2 km/h (1 Bft) 95,74 %
20.09.2021 05:46 9,0 C 8,3 C 7,8 C 93 % 1018,3 hPa 0,0 l/m 0 min 0 min 0 W/m 3,2 km/h (1 Bft) 93,62 %
20.09.2021 05:44 9,0 C 8,3 C 7,8 C 93 % 1018,2 hPa 0,0 l/m 0 min 0 min 0 W/m 3,2 km/h (1 Bft) 97,83 %
20.09.2021 05:42 9,0 C 8,3 C 7,8 C 93 % 1018,2 hPa 0,0 l/m 0 min 0 min 0 W/m 0,0 km/h (0 Bft) 97,87 %
20.09.2021 05:40 9,1 C 8,3 C 7,8 C 93 % 1018,2 hPa 0,0 l/m 0 min 0 min 0 W/m 0,0 km/h (0 Bft) 97,87 %
20.09.2021 05:38 9,1 C 8,3 C 7,8 C 93 % 1018,1 hPa 0,0 l/m 0 min 0 min 0 W/m 0,0 km/h (0 Bft) 95,74 %
20.09.2021 05:36 9,1 C 8,3 C 7,8 C 93 % 1018,0 hPa 0,0 l/m 0 min 0 min 0 W/m 3,2 km/h (1 Bft) 95,74 %
20.09.2021 05:34 9,1 C 8,3 C 7,8 C 93 % 1018,0 hPa 0,0 l/m 0 min 0 min 0 W/m 3,2 km/h (1 Bft) 95,74 %
20.09.2021 05:32 9,1 C 8,3 C 7,8 C 93 % 1018,0 hPa 0,0 l/m 0 min 0 min 0 W/m 0,0 km/h (0 Bft) 95,74 %
20.09.2021 05:30 9,1 C 8,3 C 7,8 C 93 % 1018,0 hPa 0,0 l/m 0 min 0 min 0 W/m 0,0 km/h (0 Bft) 95,65 %
20.09.2021 05:28 9,1 C 8,3 C 7,8 C 93 % 1018,0 hPa 0,0 l/m 0 min 0 min 0 W/m 0,0 km/h (0 Bft) 95,74 %
20.09.2021 05:26 9,1 C 8,3 C 7,8 C 93 % 1018,0 hPa 0,0 l/m 0 min 0 min 0 W/m 0,0 km/h (0 Bft) 93,62 %
20.09.2021 05:24 9,1 C 8,3 C 7,8 C 93 % 1018,0 hPa 0,0 l/m 0 min 0 min 0 W/m 3,2 km/h (1 Bft) 80,49 %
20.09.2021 05:22 9,1 C 8,3 C 7,8 C 93 % 1018,0 hPa 0,0 l/m 0 min 0 min 0 W/m 0,0 km/h (0 Bft) 63,83 %
20.09.2021 05:20 9,1 C 8,3 C 7,8 C 93 % 1018,0 hPa 0,0 l/m 0 min 0 min 0 W/m 3,2 km/h (1 Bft) 95,65 %
20.09.2021 05:18 9,1 C 8,3 C 7,8 C 93 % 1017,9 hPa 0,0 l/m 0 min 0 min 0 W/m 3,2 km/h (1 Bft) 95,74 %
20.09.2021 05:16 9,1 C 8,3 C 7,8 C 93 % 1017,9 hPa 0,0 l/m 0 min 0 min 0 W/m 3,2 km/h (1 Bft) 95,74 %
20.09.2021 05:14 9,1 C 8,3 C 7,8 C 93 % 1017,9 hPa 0,0 l/m 0 min 0 min 0 W/m 0,0 km/h (0 Bft) 95,74 %
20.09.2021 05:12 9,1 C 8,3 C 7,8 C 93 % 1017,9 hPa 0,0 l/m 0 min 0 min 0 W/m 3,2 km/h (1 Bft) 97,87 %
20.09.2021 05:10 9,1 C 8,3 C 7,8 C 93 % 1017,9 hPa 0,0 l/m 0 min 0 min 0 W/m 3,2 km/h (1 Bft) 97,87 %
20.09.2021 05:08 9,1 C 8,3 C 7,8 C 93 % 1017,9 hPa 0,0 l/m 0 min 0 min 0 W/m 3,2 km/h (1 Bft) 95,65 %
20.09.2021 05:06 9,1 C 8,3 C 7,8 C 93 % 1017,9 hPa 0,0 l/m 0 min 0 min 0 W/m 3,2 km/h (1 Bft) 95,74 %
20.09.2021 05:04 9,2 C 8,3 C 7,8 C 92 % 1017,9 hPa 0,0 l/m 0 min 0 min 0 W/m 3,2 km/h (1 Bft) 97,87 %
20.09.2021 05:02 9,2 C 8,3 C 7,8 C 92 % 1017,9 hPa 0,0 l/m 0 min 0 min 0 W/m 3,2 km/h (1 Bft) 95,74 %
20.09.2021 05:00 9,3 C 8,3 C 7,8 C 92 % 1017,9 hPa 0,0 l/m 0 min 0 min 0 W/m 3,2 km/h (1 Bft) 95,74 %
20.09.2021 04:58 9,3 C 8,3 C 7,8 C 92 % 1017,9 hPa 0,0 l/m 0 min 0 min 0 W/m 3,2 km/h (1 Bft) 97,87 %
20.09.2021 04:56 9,3 C 8,3 C 7,8 C 92 % 1017,9 hPa 0,0 l/m 0 min 0 min 0 W/m 3,2 km/h (1 Bft) 97,83 %
20.09.2021 04:54 9,4 C 8,3 C 7,8 C 92 % 1017,9 hPa 0,0 l/m 0 min 0 min 0 W/m 3,2 km/h (1 Bft) 97,87 %
20.09.2021 04:52 9,4 C 8,9 C 7,8 C 92 % 1017,9 hPa 0,0 l/m 0 min 0 min 0 W/m 3,2 km/h (1 Bft) 97,87 %
20.09.2021 04:50 9,4 C 8,9 C 7,8 C 92 % 1017,8 hPa 0,0 l/m 0 min 0 min 0 W/m 3,2 km/h (1 Bft) 93,62 %
20.09.2021 04:48 9,4 C 8,9 C 7,8 C 92 % 1017,9 hPa 0,0 l/m 0 min 0 min 0 W/m 3,2 km/h (1 Bft) 95,74 %
20.09.2021 04:46 9,5 C 8,9 C 7,8 C 92 % 1017,8 hPa 0,0 l/m 0 min 0 min 0 W/m 0,0 km/h (0 Bft) 95,74 %
20.09.2021 04:44 9,5 C 8,9 C 7,8 C 92 % 1017,9 hPa 0,0 l/m 0 min 0 min 0 W/m 0,0 km/h (0 Bft) 97,83 %
20.09.2021 04:42 9,5 C 8,9 C 8,4 C 92 % 1017,9 hPa 0,0 l/m 0 min 0 min 0 W/m 0,0 km/h (0 Bft) 95,74 %
20.09.2021 04:40 9,5 C 8,9 C 8,4 C 92 % 1017,9 hPa 0,0 l/m 0 min 0 min 0 W/m 0,0 km/h (0 Bft) 95,74 %
20.09.2021 04:38 9,5 C 8,9 C 8,4 C 92 % 1017,9 hPa 0,0 l/m 0 min 0 min 0 W/m 3,2 km/h (1 Bft) 95,74 %
20.09.2021 04:36 9,6 C 8,9 C 8,4 C 92 % 1017,9 hPa 0,0 l/m 0 min 0 min 0 W/m 0,0 km/h (0 Bft) 95,74 %
20.09.2021 04:34 9,6 C 8,9 C 8,4 C 92 % 1017,8 hPa 0,0 l/m 0 min 0 min 0 W/m 0,0 km/h (0 Bft) 95,92 %
20.09.2021 04:32 9,6 C 8,9 C 8,4 C 92 % 1017,9 hPa 0,0 l/m 0 min 0 min 0 W/m 0,0 km/h (0 Bft) 97,37 %
20.09.2021 04:30 9,6 C 8,9 C 8,4 C 92 % 1017,9 hPa 0,0 l/m 0 min 0 min 0 W/m 0,0 km/h (0 Bft) 97,87 %
20.09.2021 04:28 9,6 C 8,9 C 8,4 C 92 % 1017,9 hPa 0,0 l/m 0 min 0 min 0 W/m 0,0 km/h (0 Bft) 97,87 %
20.09.2021 04:26 9,6 C 8,9 C 8,4 C 92 % 1017,9 hPa 0,0 l/m 0 min 0 min 0 W/m 0,0 km/h (0 Bft) 97,87 %
20.09.2021 04:24 9,6 C 8,9 C 8,4 C 92 % 1017,8 hPa 0,0 l/m 0 min 0 min 0 W/m 0,0 km/h (0 Bft) 97,87 %
20.09.2021 04:22 9,7 C 8,9 C 8,4 C 92 % 1017,8 hPa 0,0 l/m 0 min 0 min 0 W/m 0,0 km/h (0 Bft) 97,83 %
20.09.2021 04:20 9,7 C 8,9 C 8,4 C 92 % 1017,9 hPa 0,0 l/m 0 min 0 min 0 W/m 3,2 km/h (1 Bft) 97,87 %
20.09.2021 04:18 9,7 C 8,9 C 8,4 C 92 % 1017,9 hPa 0,0 l/m 0 min 0 min 0 W/m 3,2 km/h (1 Bft) 97,87 %
20.09.2021 04:16 9,8 C 8,9 C 8,4 C 92 % 1017,9 hPa 0,0 l/m 0 min 0 min 0 W/m 3,2 km/h (1 Bft) 95,74 %
20.09.2021 04:14 9,8 C 8,9 C 8,4 C 92 % 1017,9 hPa 0,0 l/m 0 min 0 min 0 W/m 3,2 km/h (1 Bft) 97,87 %
20.09.2021 04:12 9,8 C 8,9 C 8,4 C 92 % 1017,9 hPa 0,0 l/m 0 min 0 min 0 W/m 3,2 km/h (1 Bft) 97,87 %
20.09.2021 04:10 9,8 C 8,9 C 8,4 C 92 % 1017,9 hPa 0,0 l/m 0 min 0 min 0 W/m 3,2 km/h (1 Bft) 100,00 %
20.09.2021 04:08 9,9 C 8,9 C 8,4 C 92 % 1017,8 hPa 0,0 l/m 0 min 0 min 0 W/m 3,2 km/h (1 Bft) 100,00 %
20.09.2021 04:06 9,9 C 8,9 C 8,4 C 92 % 1017,9 hPa 0,0 l/m 0 min 0 min 0 W/m 3,2 km/h (1 Bft) 100,00 %
20.09.2021 04:04 9,9 C 8,9 C 8,4 C 92 % 1017,8 hPa 0,0 l/m 0 min 0 min 0 W/m 0,0 km/h (0 Bft) 100,00 %
20.09.2021 04:02 9,9 C 8,9 C 8,4 C 91 % 1017,9 hPa 0,0 l/m 0 min 0 min 0 W/m 0,0 km/h (0 Bft) 94,12 %
20.09.2021 04:00 10,0 C 8,9 C 8,4 C 92 % 1017,9 hPa 0,0 l/m 0 min 0 min 0 W/m 3,2 km/h (1 Bft) 100,00 %
20.09.2021 03:58 10,0 C 8,9 C 8,4 C 92 % 1017,8 hPa 0,0 l/m 0 min 0 min 0 W/m 3,2 km/h (1 Bft) 100,00 %
20.09.2021 03:56 10,0 C 8,9 C 8,4 C 92 % 1017,8 hPa 0,0 l/m 0 min 0 min 0 W/m 3,2 km/h (1 Bft) 97,87 %
20.09.2021 03:54 10,0 C 8,9 C 8,4 C 91 % 1017,9 hPa 0,0 l/m 0 min 0 min 0 W/m 3,2 km/h (1 Bft) 100,00 %
20.09.2021 03:52 10,0 C 8,9 C 8,4 C 91 % 1017,8 hPa 0,0 l/m 0 min 0 min 0 W/m 3,2 km/h (1 Bft) 100,00 %
20.09.2021 03:50 10,0 C 8,9 C 8,4 C 91 % 1017,9 hPa 0,0 l/m 0 min 0 min 0 W/m 3,2 km/h (1 Bft) 100,00 %
20.09.2021 03:48 10,0 C 8,9 C 8,4 C 91 % 1017,9 hPa 0,0 l/m 0 min 0 min 0 W/m 3,2 km/h (1 Bft) 100,00 %
20.09.2021 03:46 10,0 C 8,9 C 8,4 C 91 % 1017,9 hPa 0,0 l/m 0 min 0 min 0 W/m 0,0 km/h (0 Bft) 100,00 %
20.09.2021 03:44 10,0 C 8,9 C 8,4 C 91 % 1017,9 hPa 0,0 l/m 0 min 0 min 0 W/m 0,0 km/h (0 Bft) 100,00 %
20.09.2021 03:42 10,0 C 9,4 C 8,4 C 91 % 1017,9 hPa 0,0 l/m 0 min 0 min 0 W/m 0,0 km/h (0 Bft) 100,00 %
20.09.2021 03:40 10,0 C 9,4 C 8,4 C 91 % 1017,9 hPa 0,0 l/m 0 min 0 min 0 W/m 0,0 km/h (0 Bft) 97,87 %
20.09.2021 03:38 10,0 C 9,4 C 8,4 C 91 % 1017,9 hPa 0,0 l/m 0 min 0 min 0 W/m 0,0 km/h (0 Bft) 97,87 %
20.09.2021 03:36 10,0 C 9,4 C 8,4 C 91 % 1017,9 hPa 0,0 l/m 0 min 0 min 0 W/m 0,0 km/h (0 Bft) 95,74 %
20.09.2021 03:34 10,1 C 9,4 C 8,4 C 91 % 1017,9 hPa 0,0 l/m 0 min 0 min 0 W/m 0,0 km/h (0 Bft) 93,48 %
20.09.2021 03:32 10,1 C 9,4 C 8,4 C 91 % 1017,9 hPa 0,0 l/m 0 min 0 min 0 W/m 0,0 km/h (0 Bft) 97,87 %
20.09.2021 03:30 10,1 C 9,4 C 8,4 C 91 % 1017,9 hPa 0,0 l/m 0 min 0 min 0 W/m 0,0 km/h (0 Bft) 97,87 %
20.09.2021 03:28 10,1 C 9,4 C 8,4 C 91 % 1017,9 hPa 0,0 l/m 0 min 0 min 0 W/m 0,0 km/h (0 Bft) 97,87 %
20.09.2021 03:26 10,1 C 9,4 C 8,4 C 91 % 1017,9 hPa 0,0 l/m 0 min 0 min 0 W/m 0,0 km/h (0 Bft) 97,87 %
20.09.2021 03:24 10,2 C 9,4 C 8,4 C 91 % 1017,9 hPa 0,0 l/m 0 min 0 min 0 W/m 0,0 km/h (0 Bft) 95,74 %
20.09.2021 03:22 10,2 C 9,4 C 8,4 C 91 % 1017,9 hPa 0,0 l/m 0 min 0 min 0 W/m 0,0 km/h (0 Bft) 97,83 %
20.09.2021 03:20 10,2 C 9,4 C 8,4 C 91 % 1017,9 hPa 0,0 l/m 0 min 0 min 0 W/m 0,0 km/h (0 Bft) 97,87 %
20.09.2021 03:18 10,2 C 9,4 C 8,9 C 91 % 1017,9 hPa 0,0 l/m 0 min 0 min 0 W/m 0,0 km/h (0 Bft) 97,87 %
20.09.2021 03:16 10,2 C 9,4 C 8,4 C 91 % 1017,9 hPa 0,0 l/m 0 min 0 min 0 W/m 0,0 km/h (0 Bft) 95,74 %
20.09.2021 03:14 10,2 C 9,4 C 8,4 C 91 % 1017,9 hPa 0,0 l/m 0 min 0 min 0 W/m 3,2 km/h (1 Bft) 97,87 %
20.09.2021 03:12 10,3 C 9,4 C 8,4 C 91 % 1017,9 hPa 0,0 l/m 0 min 0 min 0 W/m 3,2 km/h (1 Bft) 95,74 %
20.09.2021 03:10 10,3 C 9,4 C 8,4 C 91 % 1017,9 hPa 0,0 l/m 0 min 0 min 0 W/m 3,2 km/h (1 Bft) 95,65 %
20.09.2021 03:08 10,3 C 9,4 C 8,4 C 91 % 1017,8 hPa 0,0 l/m 0 min 0 min 0 W/m 6,4 km/h (2 Bft) 97,87 %
20.09.2021 03:06 10,3 C 9,4 C 8,4 C 91 % 1017,9 hPa 0,0 l/m 0 min 0 min 0 W/m 3,2 km/h (1 Bft) 97,87 %
20.09.2021 03:04 10,3 C 9,4 C 8,4 C 91 % 1017,8 hPa 0,0 l/m 0 min 0 min 0 W/m 3,2 km/h (1 Bft) 100,00 %
20.09.2021 03:02 10,3 C 9,4 C 8,4 C 91 % 1017,8 hPa 0,0 l/m 0 min 0 min 0 W/m 3,2 km/h (1 Bft) 97,87 %
20.09.2021 03:00 10,3 C 9,4 C 8,9 C 91 % 1017,8 hPa 0,0 l/m 0 min 0 min 0 W/m 0,0 km/h (0 Bft) 97,87 %
20.09.2021 02:58 10,4 C 9,4 C 8,9 C 91 % 1017,8 hPa 0,0 l/m 0 min 0 min 0 W/m 3,2 km/h (1 Bft) 95,65 %
20.09.2021 02:56 10,4 C 9,4 C 8,9 C 91 % 1017,8 hPa 0,0 l/m 0 min 0 min 0 W/m 3,2 km/h (1 Bft) 97,87 %
20.09.2021 02:54 10,4 C 9,4 C 8,9 C 90 % 1017,9 hPa 0,0 l/m 0 min 0 min 0 W/m 0,0 km/h (0 Bft) 97,87 %
20.09.2021 02:52 10,4 C 9,4 C 8,9 C 90 % 1017,8 hPa 0,0 l/m 0 min 0 min 0 W/m 0,0 km/h (0 Bft) 95,74 %
20.09.2021 02:50 10,4 C 9,4 C 8,9 C 90 % 1017,8 hPa 0,0 l/m 0 min 0 min 0 W/m 3,2 km/h (1 Bft) 97,87 %
20.09.2021 02:48 10,4 C 9,4 C 8,9 C 90 % 1017,8 hPa 0,0 l/m 0 min 0 min 0 W/m 3,2 km/h (1 Bft) 97,83 %
20.09.2021 02:46 10,4 C 9,4 C 8,9 C 90 % 1017,9 hPa 0,0 l/m 0 min 0 min 0 W/m 6,4 km/h (2 Bft) 97,87 %
20.09.2021 02:44 10,4 C 9,4 C 8,9 C 90 % 1017,8 hPa 0,0 l/m 0 min 0 min 0 W/m 6,4 km/h (2 Bft) 97,87 %
20.09.2021 02:42 10,4 C 9,4 C 8,9 C 90 % 1017,9 hPa 0,0 l/m 0 min 0 min 0 W/m 0,0 km/h (0 Bft) 97,87 %
20.09.2021 02:40 10,4 C 9,4 C 8,9 C 90 % 1017,9 hPa 0,0 l/m 0 min 0 min 0 W/m 0,0 km/h (0 Bft) 97,87 %
20.09.2021 02:38 10,5 C 9,4 C 8,9 C 90 % 1017,9 hPa 0,0 l/m 0 min 0 min 0 W/m 0,0 km/h (0 Bft) 97,87 %
20.09.2021 02:36 10,4 C 9,4 C 8,9 C 90 % 1017,9 hPa 0,0 l/m 0 min 0 min 0 W/m 0,0 km/h (0 Bft) 97,83 %
20.09.2021 02:34 10,5 C 9,4 C 8,9 C 90 % 1017,9 hPa 0,0 l/m 0 min 0 min 0 W/m 3,2 km/h (1 Bft) 100,00 %
20.09.2021 02:32 10,5 C 9,4 C 8,9 C 90 % 1017,8 hPa 0,0 l/m 0 min 0 min 0 W/m 3,2 km/h (1 Bft) 100,00 %
20.09.2021 02:30 10,5 C 10,0 C 8,9 C 90 % 1017,8 hPa 0,0 l/m 0 min 0 min 0 W/m 0,0 km/h (0 Bft) 100,00 %
20.09.2021 02:28 10,5 C 10,0 C 8,9 C 90 % 1017,8 hPa 0,0 l/m 0 min 0 min 0 W/m 3,2 km/h (1 Bft) 97,87 %
20.09.2021 02:26 10,5 C 10,0 C 8,9 C 90 % 1017,8 hPa 0,0 l/m 0 min 0 min 0 W/m 3,2 km/h (1 Bft) 100,00 %
20.09.2021 02:24 10,5 C 10,0 C 8,9 C 90 % 1017,7 hPa 0,0 l/m 0 min 0 min 0 W/m 3,2 km/h (1 Bft) 97,83 %
20.09.2021 02:22 10,5 C 10,0 C 8,9 C 90 % 1017,8 hPa 0,0 l/m 0 min 0 min 0 W/m 3,2 km/h (1 Bft) 100,00 %
20.09.2021 02:20 10,5 C 10,0 C 8,9 C 90 % 1017,8 hPa 0,0 l/m 0 min 0 min 0 W/m 0,0 km/h (0 Bft) 100,00 %
20.09.2021 02:18 10,5 C 10,0 C 8,9 C 90 % 1017,8 hPa 0,0 l/m 0 min 0 min 0 W/m 3,2 km/h (1 Bft) 100,00 %
20.09.2021 02:16 10,5 C 10,0 C 8,9 C 90 % 1017,8 hPa 0,0 l/m 0 min 0 min 0 W/m 0,0 km/h (0 Bft) 100,00 %
20.09.2021 02:14 10,5 C 10,0 C 8,9 C 90 % 1017,8 hPa 0,0 l/m 0 min 0 min 0 W/m 0,0 km/h (0 Bft) 100,00 %
20.09.2021 02:12 10,5 C 10,0 C 8,9 C 90 % 1017,8 hPa 0,0 l/m 0 min 0 min 0 W/m 0,0 km/h (0 Bft) 56,76 %
20.09.2021 02:10 10,6 C 10,0 C 8,9 C 90 % 1017,8 hPa 0,0 l/m 0 min 0 min 0 W/m 3,2 km/h (1 Bft) 91,49 %
20.09.2021 02:08 10,6 C 10,0 C 8,9 C 90 % 1017,7 hPa 0,0 l/m 0 min 0 min 0 W/m 3,2 km/h (1 Bft) 97,87 %
20.09.2021 02:06 10,6 C 10,0 C 8,9 C 89 % 1017,7 hPa 0,0 l/m 0 min 0 min 0 W/m 3,2 km/h (1 Bft) 100,00 %
20.09.2021 02:04 10,6 C 10,0 C 8,9 C 89 % 1017,7 hPa 0,0 l/m 0 min 0 min 0 W/m 3,2 km/h (1 Bft) 100,00 %
20.09.2021 02:02 10,6 C 10,0 C 8,9 C 89 % 1017,7 hPa 0,0 l/m 0 min 0 min 0 W/m 3,2 km/h (1 Bft) 95,74 %
20.09.2021 02:00 10,6 C 10,0 C 8,9 C 89 % 1017,7 hPa 0,0 l/m 0 min 0 min 0 W/m 3,2 km/h (1 Bft) 95,65 %
_ Min-Zeit 06:50 06:16 06:26 15:40 02:00 - - - - 02:12 08:16
Minimum _ 8,6 C 7,8 C 7,3 C 61 % 1017,7 hPa - - - - 0,0 km/h (0 Bft) 32,26 %
_ Max-Zeit 15:38 13:54 11:40 08:58 01:12 02:00 12:08 02:00 15:32 18:12 02:04
Maximum _ 18,3 C 20,0 C 15,6 C 96 % 1026,3 hPa 0,0 l/m 4 min 0 min 743 W/m 25,7 km/h
O-SO (4 Bft)
100,00 %
Durchschnitt _ 13,0 C 13,0 C 11,1 C 79 % 1020,9 hPa #0,0 l/m #0 min. #0 min. 0 W/m 6,9 km/h (2 Bft) 97,16 %
© 2021 W. Hausmann